Time,TemperatureF,DewpointF,PressureIn,WindDirection,WindDirectionDegrees,WindSpeedMPH,WindSpeedGustMPH,Humidity,HourlyPrecipIn,Conditions,Clouds,dailyrainin,SoftwareType,DateUTC
2013-06-19 00:00:00,59.0,48.1,30.04,East,84,2.0,2.0,67,0.00,,,0.00,Wunderground v.1.15,2013-06-19 05:00:00,
2013-06-19 00:02:00,59.0,48.1,30.04,East,84,2.0,2.0,67,0.00,,,0.00,Wunderground v.1.15,2013-06-19 05:02:00,
2013-06-19 00:03:00,59.0,48.1,30.04,East,83,1.0,3.0,67,0.00,,,0.00,Wunderground v.1.15,2013-06-19 05:03:00,
2013-06-19 00:05:00,58.9,48.0,30.04,East,83,1.0,3.0,67,0.00,,,0.00,Wunderground v.1.15,2013-06-19 05:05:00,
2013-06-19 00:08:00,58.8,47.9,30.04,East,84,1.0,3.0,67,0.00,,,0.00,Wunderground v.1.15,2013-06-19 05:08:00,
2013-06-19 00:09:00,58.7,47.8,30.04,East,84,1.0,3.0,67,0.00,,,0.00,Wunderground v.1.15,2013-06-19 05:09:00,
2013-06-19 00:11:00,58.6,47.7,30.04,East,83,1.0,3.0,67,0.00,,,0.00,Wunderground v.1.15,2013-06-19 05:11:00,
2013-06-19 00:15:00,58.5,47.6,30.04,East,82,2.0,4.0,67,0.00,,,0.00,Wunderground v.1.15,2013-06-19 05:15:00,
2013-06-19 00:16:00,58.5,47.6,30.04,East,88,2.0,4.0,67,0.00,,,0.00,Wunderground v.1.15,2013-06-19 05:16:00,
2013-06-19 00:21:00,58.4,47.9,30.05,East,86,2.0,2.0,68,0.00,,,0.00,Wunderground v.1.15,2013-06-19 05:21:00,
2013-06-19 00:22:00,58.4,47.9,30.05,East,87,2.0,4.0,68,0.00,,,0.00,Wunderground v.1.15,2013-06-19 05:22:00,
2013-06-19 00:24:00,58.4,47.9,30.05,East,80,1.0,5.0,68,0.00,,,0.00,Wunderground v.1.15,2013-06-19 05:24:00,
2013-06-19 00:26:00,58.3,47.8,30.05,East,82,1.0,5.0,68,0.00,,,0.00,Wunderground v.1.15,2013-06-19 05:26:00,
2013-06-19 00:27:00,58.3,47.8,30.05,East,82,1.0,5.0,68,0.00,,,0.00,Wunderground v.1.15,2013-06-19 05:27:00,
2013-06-19 00:30:00,58.1,47.6,30.05,East,82,1.0,1.0,68,0.00,,,0.00,Wunderground v.1.15,2013-06-19 05:30:00,
2013-06-19 00:31:00,58.1,47.6,30.05,East,82,1.0,1.0,68,0.00,,,0.00,Wunderground v.1.15,2013-06-19 05:31:00,
2013-06-19 00:33:00,58.0,47.5,30.05,East,82,0.0,1.0,68,0.00,,,0.00,Wunderground v.1.15,2013-06-19 05:33:00,
2013-06-19 00:34:00,58.0,47.5,30.05,East,82,1.0,1.0,68,0.00,,,0.00,Wunderground v.1.15,2013-06-19 05:34:00,
2013-06-19 00:35:00,57.9,47.4,30.05,East,82,0.0,1.0,68,0.00,,,0.00,Wunderground v.1.15,2013-06-19 05:35:00,
2013-06-19 00:36:00,57.9,47.4,30.05,East,82,0.0,1.0,68,0.00,,,0.00,Wunderground v.1.15,2013-06-19 05:36:00,
2013-06-19 00:39:00,57.8,47.3,30.05,East,82,0.0,1.0,68,0.00,,,0.00,Wunderground v.1.15,2013-06-19 05:39:00,
2013-06-19 00:41:00,57.7,47.6,30.05,East,82,0.0,0.0,69,0.00,,,0.00,Wunderground v.1.15,2013-06-19 05:41:00,
2013-06-19 00:42:00,57.7,47.6,30.05,East,82,0.0,0.0,69,0.00,,,0.00,Wunderground v.1.15,2013-06-19 05:42:00,
2013-06-19 00:43:00,57.7,47.6,30.05,East,82,0.0,0.0,69,0.00,,,0.00,Wunderground v.1.15,2013-06-19 05:43:00,
2013-06-19 00:44:00,57.6,47.5,30.05,East,82,0.0,0.0,69,0.00,,,0.00,Wunderground v.1.15,2013-06-19 05:44:00,
2013-06-19 00:46:00,57.5,47.4,30.05,East,81,0.0,4.0,69,0.00,,,0.00,Wunderground v.1.15,2013-06-19 05:46:00,
2013-06-19 00:48:00,57.5,47.4,30.05,East,81,1.0,4.0,69,0.00,,,0.00,Wunderground v.1.15,2013-06-19 05:48:00,
2013-06-19 00:49:00,57.4,47.7,30.05,East,81,1.0,4.0,70,0.00,,,0.00,Wunderground v.1.15,2013-06-19 05:49:00,
2013-06-19 00:51:00,57.3,47.6,30.05,East,81,0.0,1.0,70,0.00,,,0.00,Wunderground v.1.15,2013-06-19 05:51:00,
2013-06-19 00:54:00,57.1,47.4,30.05,East,81,1.0,3.0,70,0.00,,,0.00,Wunderground v.1.15,2013-06-19 05:54:00,
2013-06-19 00:55:00,57.1,47.4,30.04,East,81,1.0,3.0,70,0.00,,,0.00,Wunderground v.1.15,2013-06-19 05:55:00,
2013-06-19 00:57:00,57.0,47.7,30.05,East,81,1.0,3.0,71,0.00,,,0.00,Wunderground v.1.15,2013-06-19 05:57:00,
2013-06-19 01:00:00,56.9,47.2,30.05,ENE,78,1.0,2.0,70,0.00,,,0.00,Wunderground v.1.15,2013-06-19 06:00:00,
2013-06-19 01:01:00,56.8,47.5,30.04,ENE,78,1.0,2.0,71,0.00,,,0.00,Wunderground v.1.15,2013-06-19 06:01:00,
2013-06-19 01:02:00,56.8,47.5,30.04,ENE,78,1.0,2.0,71,0.00,,,0.00,Wunderground v.1.15,2013-06-19 06:02:00,
2013-06-19 01:03:00,56.8,47.5,30.05,ENE,78,1.0,2.0,71,0.00,,,0.00,Wunderground v.1.15,2013-06-19 06:03:00,
2013-06-19 01:06:00,56.7,47.4,30.05,East,79,1.0,2.0,71,0.00,,,0.00,Wunderground v.1.15,2013-06-19 06:06:00,
2013-06-19 01:07:00,56.7,47.4,30.05,East,79,1.0,2.0,71,0.00,,,0.00,Wunderground v.1.15,2013-06-19 06:07:00,
2013-06-19 01:10:00,56.6,47.3,30.05,East,79,1.0,1.0,71,0.00,,,0.00,Wunderground v.1.15,2013-06-19 06:10:00,
2013-06-19 01:11:00,56.5,47.2,30.05,East,79,0.0,1.0,71,0.00,,,0.00,Wunderground v.1.15,2013-06-19 06:11:00,
2013-06-19 01:12:00,56.5,47.2,30.05,East,79,0.0,1.0,71,0.00,,,0.00,Wunderground v.1.15,2013-06-19 06:12:00,
2013-06-19 01:15:00,56.4,47.1,30.05,East,79,0.0,1.0,71,0.00,,,0.00,Wunderground v.1.15,2013-06-19 06:15:00,
2013-06-19 01:16:00,56.4,47.1,30.05,East,79,0.0,1.0,71,0.00,,,0.00,Wunderground v.1.15,2013-06-19 06:16:00,
2013-06-19 01:17:00,56.4,47.1,30.05,East,79,0.0,1.0,71,0.00,,,0.00,Wunderground v.1.15,2013-06-19 06:17:00,
2013-06-19 01:18:00,56.3,47.0,30.05,East,79,0.0,1.0,71,0.00,,,0.00,Wunderground v.1.15,2013-06-19 06:18:00,
2013-06-19 01:22:00,56.2,47.3,30.05,East,79,0.0,0.0,72,0.00,,,0.00,Wunderground v.1.15,2013-06-19 06:22:00,
2013-06-19 01:23:00,56.1,47.2,30.05,East,79,0.0,0.0,72,0.00,,,0.00,Wunderground v.1.15,2013-06-19 06:23:00,
2013-06-19 01:25:00,56.1,47.2,30.05,East,79,0.0,0.0,72,0.00,,,0.00,Wunderground v.1.15,2013-06-19 06:25:00,
2013-06-19 01:27:00,56.0,47.1,30.05,East,79,0.0,0.0,72,0.00,,,0.00,Wunderground v.1.15,2013-06-19 06:27:00,
2013-06-19 01:30:00,55.9,47.4,30.05,East,79,0.0,0.0,73,0.00,,,0.00,Wunderground v.1.15,2013-06-19 06:30:00,
2013-06-19 01:31:00,55.8,47.3,30.05,East,79,0.0,0.0,73,0.00,,,0.00,Wunderground v.1.15,2013-06-19 06:31:00,
2013-06-19 01:33:00,55.8,47.3,30.05,East,79,0.0,0.0,73,0.00,,,0.00,Wunderground v.1.15,2013-06-19 06:33:00,
2013-06-19 01:35:00,55.7,47.2,30.05,East,79,0.0,0.0,73,0.00,,,0.00,Wunderground v.1.15,2013-06-19 06:35:00,
2013-06-19 01:37:00,55.7,47.2,30.05,East,79,0.0,0.0,73,0.00,,,0.00,Wunderground v.1.15,2013-06-19 06:37:00,
2013-06-19 01:39:00,55.7,47.5,30.05,ENE,78,0.0,2.0,74,0.00,,,0.00,Wunderground v.1.15,2013-06-19 06:39:00,
2013-06-19 01:42:00,55.6,47.4,30.05,ENE,78,0.0,0.0,74,0.00,,,0.00,Wunderground v.1.15,2013-06-19 06:42:00,
2013-06-19 01:44:00,55.5,47.3,30.05,ENE,78,0.0,0.0,74,0.00,,,0.00,Wunderground v.1.15,2013-06-19 06:44:00,
2013-06-19 01:47:00,55.4,47.2,30.05,ENE,78,0.0,1.0,74,0.00,,,0.00,Wunderground v.1.15,2013-06-19 06:47:00,
2013-06-19 01:49:00,55.3,47.5,30.05,ENE,78,1.0,3.0,75,0.00,,,0.00,Wunderground v.1.15,2013-06-19 06:49:00,
2013-06-19 01:53:00,55.3,47.5,30.05,ENE,77,1.0,2.0,75,0.00,,,0.00,Wunderground v.1.15,2013-06-19 06:53:00,
2013-06-19 01:55:00,55.3,47.5,30.05,ENE,77,1.0,2.0,75,0.00,,,0.00,Wunderground v.1.15,2013-06-19 06:55:00,
2013-06-19 01:56:00,55.3,47.5,30.05,ENE,77,1.0,2.0,75,0.00,,,0.00,Wunderground v.1.15,2013-06-19 06:56:00,
2013-06-19 01:59:00,55.2,47.4,30.05,ENE,77,1.0,2.0,75,0.00,,,0.00,Wunderground v.1.15,2013-06-19 06:59:00,
2013-06-19 02:01:00,55.1,47.3,30.05,ENE,78,1.0,1.0,75,0.00,,,0.00,Wunderground v.1.15,2013-06-19 07:01:00,
2013-06-19 02:03:00,55.1,47.3,30.05,ENE,78,0.0,1.0,75,0.00,,,0.00,Wunderground v.1.15,2013-06-19 07:03:00,
2013-06-19 02:05:00,55.0,47.2,30.05,East,80,0.0,3.0,75,0.00,,,0.00,Wunderground v.1.15,2013-06-19 07:05:00,
2013-06-19 02:07:00,55.0,47.2,30.05,East,80,0.0,3.0,75,0.00,,,0.00,Wunderground v.1.15,2013-06-19 07:07:00,
2013-06-19 02:10:00,54.9,47.1,30.05,East,79,1.0,3.0,75,0.00,,,0.00,Wunderground v.1.15,2013-06-19 07:10:00,
2013-06-19 02:11:00,54.9,47.1,30.05,ENE,78,1.0,3.0,75,0.00,,,0.00,Wunderground v.1.15,2013-06-19 07:11:00,
2013-06-19 02:12:00,54.9,47.1,30.05,ENE,78,1.0,3.0,75,0.00,,,0.00,Wunderground v.1.15,2013-06-19 07:12:00,
2013-06-19 02:14:00,54.9,47.1,30.05,ENE,78,1.0,3.0,75,0.00,,,0.00,Wunderground v.1.15,2013-06-19 07:14:00,
2013-06-19 02:17:00,54.8,47.0,30.05,ENE,78,1.0,3.0,75,0.00,,,0.00,Wunderground v.1.15,2013-06-19 07:17:00,
2013-06-19 02:18:00,54.8,47.0,30.05,ENE,78,1.0,3.0,75,0.00,,,0.00,Wunderground v.1.15,2013-06-19 07:18:00,
2013-06-19 02:19:00,54.8,47.0,30.05,ENE,78,1.0,3.0,75,0.00,,,0.00,Wunderground v.1.15,2013-06-19 07:19:00,
2013-06-19 02:20:00,54.8,47.0,30.05,ENE,78,1.0,1.0,75,0.00,,,0.00,Wunderground v.1.15,2013-06-19 07:20:00,
2013-06-19 02:23:00,54.8,47.0,30.05,ENE,78,0.0,1.0,75,0.00,,,0.00,Wunderground v.1.15,2013-06-19 07:23:00,
2013-06-19 02:24:00,54.7,46.9,30.05,ENE,78,0.0,2.0,75,0.00,,,0.00,Wunderground v.1.15,2013-06-19 07:24:00,
2013-06-19 02:25:00,54.7,46.9,30.05,ENE,78,1.0,2.0,75,0.00,,,0.00,Wunderground v.1.15,2013-06-19 07:25:00,
2013-06-19 02:26:00,54.7,46.9,30.05,ENE,78,0.0,2.0,75,0.00,,,0.00,Wunderground v.1.15,2013-06-19 07:26:00,
2013-06-19 02:27:00,54.7,46.9,30.05,ENE,78,0.0,2.0,75,0.00,,,0.00,Wunderground v.1.15,2013-06-19 07:27:00,
2013-06-19 02:29:00,54.7,46.9,30.05,ENE,78,0.0,2.0,75,0.00,,,0.00,Wunderground v.1.15,2013-06-19 07:29:00,
2013-06-19 02:33:00,54.6,47.2,30.05,ENE,78,0.0,2.0,76,0.00,,,0.00,Wunderground v.1.15,2013-06-19 07:33:00,
2013-06-19 02:34:00,54.6,47.2,30.06,ENE,78,0.0,2.0,76,0.00,,,0.00,Wunderground v.1.15,2013-06-19 07:34:00,
2013-06-19 02:36:00,54.6,47.2,30.06,ENE,78,0.0,2.0,76,0.00,,,0.00,Wunderground v.1.15,2013-06-19 07:36:00,
2013-06-19 02:39:00,54.5,47.1,30.06,ENE,78,0.0,3.0,76,0.00,,,0.00,Wunderground v.1.15,2013-06-19 07:39:00,
2013-06-19 02:40:00,54.5,47.1,30.06,ENE,78,0.0,0.0,76,0.00,,,0.00,Wunderground v.1.15,2013-06-19 07:40:00,
2013-06-19 02:41:00,54.5,47.1,30.05,ENE,78,0.0,0.0,76,0.00,,,0.00,Wunderground v.1.15,2013-06-19 07:41:00,
2013-06-19 02:46:00,54.4,47.0,30.05,ENE,78,1.0,3.0,76,0.00,,,0.00,Wunderground v.1.15,2013-06-19 07:46:00,
2013-06-19 02:47:00,54.4,47.0,30.05,ENE,78,1.0,3.0,76,0.00,,,0.00,Wunderground v.1.15,2013-06-19 07:47:00,
2013-06-19 02:48:00,54.4,47.0,30.05,ENE,78,1.0,3.0,76,0.00,,,0.00,Wunderground v.1.15,2013-06-19 07:48:00,
2013-06-19 02:51:00,54.3,46.9,30.05,ENE,78,1.0,2.0,76,0.00,,,0.00,Wunderground v.1.15,2013-06-19 07:51:00,
2013-06-19 02:52:00,54.3,46.9,30.05,ENE,78,1.0,2.0,76,0.00,,,0.00,Wunderground v.1.15,2013-06-19 07:52:00,
2013-06-19 02:54:00,54.2,46.8,30.06,ENE,78,1.0,2.0,76,0.00,,,0.00,Wunderground v.1.15,2013-06-19 07:54:00,
2013-06-19 02:55:00,54.3,46.9,30.05,ENE,78,1.0,2.0,76,0.00,,,0.00,Wunderground v.1.15,2013-06-19 07:55:00,
2013-06-19 02:56:00,54.2,46.8,30.06,ENE,78,1.0,2.0,76,0.00,,,0.00,Wunderground v.1.15,2013-06-19 07:56:00,
2013-06-19 02:57:00,54.2,46.8,30.06,ENE,78,1.0,2.0,76,0.00,,,0.00,Wunderground v.1.15,2013-06-19 07:57:00,
2013-06-19 02:59:00,54.2,46.8,30.05,ENE,78,1.0,3.0,76,0.00,,,0.00,Wunderground v.1.15,2013-06-19 07:59:00,
2013-06-19 03:01:00,54.2,46.8,30.05,ENE,78,1.0,1.0,76,0.00,,,0.00,Wunderground v.1.15,2013-06-19 08:01:00,
2013-06-19 03:04:00,54.2,46.8,30.06,ENE,78,1.0,2.0,76,0.00,,,0.00,Wunderground v.1.15,2013-06-19 08:04:00,
2013-06-19 03:05:00,54.2,46.4,30.05,ENE,78,1.0,2.0,75,0.00,,,0.00,Wunderground v.1.15,2013-06-19 08:05:00,
2013-06-19 03:10:00,54.2,46.4,30.06,ENE,78,1.0,1.0,75,0.00,,,0.00,Wunderground v.1.15,2013-06-19 08:10:00,
2013-06-19 03:11:00,54.2,46.8,30.06,ENE,78,1.0,1.0,76,0.00,,,0.00,Wunderground v.1.15,2013-06-19 08:11:00,
2013-06-19 03:12:00,54.2,46.4,30.06,ENE,78,1.0,1.0,75,0.00,,,0.00,Wunderground v.1.15,2013-06-19 08:12:00,
2013-06-19 03:15:00,54.2,46.4,30.06,ENE,78,1.0,3.0,75,0.00,,,0.00,Wunderground v.1.15,2013-06-19 08:15:00,
2013-06-19 03:17:00,54.2,46.4,30.06,ENE,78,1.0,3.0,75,0.00,,,0.00,Wunderground v.1.15,2013-06-19 08:17:00,
2013-06-19 03:19:00,54.1,46.7,30.06,ENE,78,1.0,3.0,76,0.00,,,0.00,Wunderground v.1.15,2013-06-19 08:19:00,
2013-06-19 03:20:00,54.1,46.7,30.06,ENE,78,1.0,1.0,76,0.00,,,0.00,Wunderground v.1.15,2013-06-19 08:20:00,
2013-06-19 03:22:00,54.1,46.7,30.06,ENE,78,1.0,2.0,76,0.00,,,0.00,Wunderground v.1.15,2013-06-19 08:22:00,
2013-06-19 03:23:00,54.1,46.7,30.06,ENE,78,1.0,2.0,76,0.00,,,0.00,Wunderground v.1.15,2013-06-19 08:23:00,
2013-06-19 03:26:00,54.1,46.7,30.06,ENE,76,1.0,2.0,76,0.00,,,0.00,Wunderground v.1.15,2013-06-19 08:26:00,
2013-06-19 03:28:00,54.1,46.7,30.05,ENE,76,1.0,2.0,76,0.00,,,0.00,Wunderground v.1.15,2013-06-19 08:28:00,
2013-06-19 03:29:00,54.0,46.6,30.05,ENE,76,1.0,3.0,76,0.00,,,0.00,Wunderground v.1.15,2013-06-19 08:29:00,
2013-06-19 03:30:00,54.0,46.6,30.05,ENE,76,1.0,1.0,76,0.00,,,0.00,Wunderground v.1.15,2013-06-19 08:30:00,
2013-06-19 03:31:00,54.0,46.6,30.05,ENE,76,1.0,2.0,76,0.00,,,0.00,Wunderground v.1.15,2013-06-19 08:31:00,
2013-06-19 03:32:00,54.0,46.6,30.05,ENE,76,1.0,3.0,76,0.00,,,0.00,Wunderground v.1.15,2013-06-19 08:32:00,
2013-06-19 03:35:00,54.0,46.6,30.05,ENE,76,1.0,3.0,76,0.00,,,0.00,Wunderground v.1.15,2013-06-19 08:35:00,
2013-06-19 03:36:00,54.0,46.6,30.05,ENE,76,1.0,3.0,76,0.00,,,0.00,Wunderground v.1.15,2013-06-19 08:36:00,
2013-06-19 03:37:00,54.0,46.6,30.05,ENE,76,2.0,3.0,76,0.00,,,0.00,Wunderground v.1.15,2013-06-19 08:37:00,
2013-06-19 03:40:00,54.0,46.6,30.05,ENE,76,1.0,1.0,76,0.00,,,0.00,Wunderground v.1.15,2013-06-19 08:40:00,
2013-06-19 03:41:00,54.0,46.6,30.05,ENE,76,1.0,1.0,76,0.00,,,0.00,Wunderground v.1.15,2013-06-19 08:41:00,
2013-06-19 03:42:00,53.9,46.5,30.05,ENE,76,1.0,1.0,76,0.00,,,0.00,Wunderground v.1.15,2013-06-19 08:42:00,
2013-06-19 03:43:00,54.0,46.6,30.05,ENE,76,1.0,1.0,76,0.00,,,0.00,Wunderground v.1.15,2013-06-19 08:43:00,
2013-06-19 03:48:00,53.9,46.5,30.06,ENE,76,0.0,1.0,76,0.00,,,0.00,Wunderground v.1.15,2013-06-19 08:48:00,
2013-06-19 03:49:00,53.9,46.5,30.06,ENE,76,0.0,1.0,76,0.00,,,0.00,Wunderground v.1.15,2013-06-19 08:49:00,
2013-06-19 03:52:00,53.9,46.5,30.06,ENE,76,0.0,2.0,76,0.00,,,0.00,Wunderground v.1.15,2013-06-19 08:52:00,
2013-06-19 03:53:00,53.9,46.5,30.06,ENE,76,0.0,2.0,76,0.00,,,0.00,Wunderground v.1.15,2013-06-19 08:53:00,
2013-06-19 03:55:00,53.8,46.4,30.06,ENE,76,0.0,2.0,76,0.00,,,0.00,Wunderground v.1.15,2013-06-19 08:55:00,
2013-06-19 03:57:00,53.9,46.5,30.07,ENE,76,0.0,2.0,76,0.00,,,0.00,Wunderground v.1.15,2013-06-19 08:57:00,
2013-06-19 03:58:00,53.8,46.4,30.06,ENE,76,0.0,2.0,76,0.00,,,0.00,Wunderground v.1.15,2013-06-19 08:58:00,
2013-06-19 04:01:00,53.7,46.3,30.06,ENE,76,0.0,0.0,76,0.00,,,0.00,Wunderground v.1.15,2013-06-19 09:01:00,
2013-06-19 04:02:00,53.7,46.3,30.06,ENE,76,0.0,1.0,76,0.00,,,0.00,Wunderground v.1.15,2013-06-19 09:02:00,
2013-06-19 04:03:00,53.7,46.3,30.06,ENE,76,0.0,1.0,76,0.00,,,0.00,Wunderground v.1.15,2013-06-19 09:03:00,
2013-06-19 04:04:00,53.7,46.3,30.06,ENE,76,0.0,1.0,76,0.00,,,0.00,Wunderground v.1.15,2013-06-19 09:04:00,
2013-06-19 04:06:00,53.7,46.3,30.06,ENE,76,0.0,2.0,76,0.00,,,0.00,Wunderground v.1.15,2013-06-19 09:06:00,
2013-06-19 04:07:00,53.7,46.3,30.07,ENE,76,0.0,2.0,76,0.00,,,0.00,Wunderground v.1.15,2013-06-19 09:07:00,
2013-06-19 04:09:00,53.7,46.3,30.07,ENE,76,1.0,3.0,76,0.00,,,0.00,Wunderground v.1.15,2013-06-19 09:09:00,
2013-06-19 04:11:00,53.7,46.3,30.07,ENE,76,1.0,1.0,76,0.00,,,0.00,Wunderground v.1.15,2013-06-19 09:11:00,
2013-06-19 04:13:00,53.7,46.3,30.06,ENE,76,1.0,2.0,76,0.00,,,0.00,Wunderground v.1.15,2013-06-19 09:13:00,
2013-06-19 04:15:00,53.6,46.2,30.07,ENE,76,1.0,2.0,76,0.00,,,0.00,Wunderground v.1.15,2013-06-19 09:15:00,
2013-06-19 04:18:00,53.6,46.2,30.06,ENE,76,1.0,2.0,76,0.00,,,0.00,Wunderground v.1.15,2013-06-19 09:18:00,
2013-06-19 04:19:00,53.6,46.2,30.06,ENE,76,1.0,2.0,76,0.00,,,0.00,Wunderground v.1.15,2013-06-19 09:19:00,
2013-06-19 04:21:00,53.6,46.2,30.06,ENE,76,1.0,1.0,76,0.00,,,0.00,Wunderground v.1.15,2013-06-19 09:21:00,
2013-06-19 04:22:00,53.6,46.2,30.06,ENE,76,1.0,1.0,76,0.00,,,0.00,Wunderground v.1.15,2013-06-19 09:22:00,
2013-06-19 04:25:00,53.7,46.3,30.06,ENE,76,1.0,2.0,76,0.00,,,0.00,Wunderground v.1.15,2013-06-19 09:25:00,
2013-06-19 04:26:00,53.6,46.2,30.06,ENE,76,1.0,2.0,76,0.00,,,0.00,Wunderground v.1.15,2013-06-19 09:26:00,
2013-06-19 04:27:00,53.6,46.2,30.06,ENE,76,0.0,2.0,76,0.00,,,0.00,Wunderground v.1.15,2013-06-19 09:27:00,
2013-06-19 04:28:00,53.6,46.2,30.06,ENE,76,0.0,2.0,76,0.00,,,0.00,Wunderground v.1.15,2013-06-19 09:28:00,
2013-06-19 04:30:00,53.6,46.2,30.06,ENE,75,1.0,1.0,76,0.00,,,0.00,Wunderground v.1.15,2013-06-19 09:30:00,
2013-06-19 04:31:00,53.6,46.2,30.06,ENE,75,0.0,1.0,76,0.00,,,0.00,Wunderground v.1.15,2013-06-19 09:31:00,
2013-06-19 04:35:00,53.6,46.6,30.06,ENE,75,1.0,1.0,77,0.00,,,0.00,Wunderground v.1.15,2013-06-19 09:35:00,
2013-06-19 04:36:00,53.6,46.6,30.06,ENE,75,1.0,1.0,77,0.00,,,0.00,Wunderground v.1.15,2013-06-19 09:36:00,
2013-06-19 04:39:00,53.5,46.5,30.06,ENE,75,1.0,1.0,77,0.00,,,0.00,Wunderground v.1.15,2013-06-19 09:39:00,
2013-06-19 04:40:00,53.5,46.5,30.06,ENE,75,1.0,1.0,77,0.00,,,0.00,Wunderground v.1.15,2013-06-19 09:40:00,
2013-06-19 04:42:00,53.5,46.5,30.06,ENE,75,1.0,1.0,77,0.00,,,0.00,Wunderground v.1.15,2013-06-19 09:42:00,
2013-06-19 04:45:00,53.5,46.5,30.06,ENE,75,0.0,1.0,77,0.00,,,0.00,Wunderground v.1.15,2013-06-19 09:45:00,
2013-06-19 04:46:00,53.4,46.4,30.06,ENE,75,0.0,1.0,77,0.00,,,0.00,Wunderground v.1.15,2013-06-19 09:46:00,
2013-06-19 04:48:00,53.4,46.4,30.06,ENE,75,0.0,1.0,77,0.00,,,0.00,Wunderground v.1.15,2013-06-19 09:48:00,
2013-06-19 04:49:00,53.4,46.4,30.07,ENE,75,0.0,1.0,77,0.00,,,0.00,Wunderground v.1.15,2013-06-19 09:49:00,
2013-06-19 04:50:00,53.4,46.4,30.07,ENE,75,0.0,0.0,77,0.00,,,0.00,Wunderground v.1.15,2013-06-19 09:50:00,
2013-06-19 04:52:00,53.4,46.4,30.07,ENE,75,0.0,0.0,77,0.00,,,0.00,Wunderground v.1.15,2013-06-19 09:52:00,
2013-06-19 04:54:00,53.3,46.6,30.07,ENE,75,0.0,2.0,78,0.00,,,0.00,Wunderground v.1.15,2013-06-19 09:54:00,
2013-06-19 04:55:00,53.3,46.6,30.07,ENE,75,0.0,2.0,78,0.00,,,0.00,Wunderground v.1.15,2013-06-19 09:55:00,
2013-06-19 04:59:00,53.2,46.5,30.07,ENE,74,0.0,2.0,78,0.00,,,0.00,Wunderground v.1.15,2013-06-19 09:59:00,
2013-06-19 05:00:00,53.2,46.5,30.07,ENE,74,0.0,0.0,78,0.00,,,0.00,Wunderground v.1.15,2013-06-19 10:00:00,
2013-06-19 05:01:00,53.2,46.5,30.07,ENE,74,0.0,0.0,78,0.00,,,0.00,Wunderground v.1.15,2013-06-19 10:01:00,
2013-06-19 05:05:00,53.1,46.4,30.07,ENE,74,0.0,3.0,78,0.00,,,0.00,Wunderground v.1.15,2013-06-19 10:05:00,
2013-06-19 05:06:00,53.1,46.4,30.07,ENE,74,0.0,3.0,78,0.00,,,0.00,Wunderground v.1.15,2013-06-19 10:06:00,
2013-06-19 05:07:00,53.1,46.4,30.07,ENE,74,0.0,3.0,78,0.00,,,0.00,Wunderground v.1.15,2013-06-19 10:07:00,
2013-06-19 05:11:00,53.0,46.7,30.07,ENE,74,0.0,0.0,79,0.00,,,0.00,Wunderground v.1.15,2013-06-19 10:11:00,
2013-06-19 05:12:00,53.0,46.7,30.07,ENE,74,0.0,0.0,79,0.00,,,0.00,Wunderground v.1.15,2013-06-19 10:12:00,
2013-06-19 05:15:00,52.9,46.6,30.07,ENE,74,0.0,0.0,79,0.00,,,0.00,Wunderground v.1.15,2013-06-19 10:15:00,
2013-06-19 05:16:00,52.8,46.5,30.07,ENE,74,0.0,0.0,79,0.00,,,0.00,Wunderground v.1.15,2013-06-19 10:16:00,
2013-06-19 05:17:00,52.8,46.5,30.07,ENE,74,0.0,0.0,79,0.00,,,0.00,Wunderground v.1.15,2013-06-19 10:17:00,
2013-06-19 05:18:00,52.8,46.5,30.07,ENE,74,0.0,0.0,79,0.00,,,0.00,Wunderground v.1.15,2013-06-19 10:18:00,
2013-06-19 05:21:00,52.7,46.4,30.07,ENE,74,0.0,0.0,79,0.00,,,0.00,Wunderground v.1.15,2013-06-19 10:21:00,
2013-06-19 05:23:00,52.6,46.3,30.07,ENE,74,0.0,2.0,79,0.00,,,0.00,Wunderground v.1.15,2013-06-19 10:23:00,
2013-06-19 05:25:00,52.6,46.6,30.07,ENE,74,0.0,2.0,80,0.00,,,0.00,Wunderground v.1.15,2013-06-19 10:25:00,
2013-06-19 05:26:00,52.6,46.6,30.07,ENE,74,0.0,2.0,80,0.00,,,0.00,Wunderground v.1.15,2013-06-19 10:26:00,
2013-06-19 05:28:00,52.5,46.5,30.07,ENE,74,0.0,2.0,80,0.00,,,0.00,Wunderground v.1.15,2013-06-19 10:28:00,
2013-06-19 05:30:00,52.5,46.5,30.07,ENE,74,0.0,2.0,80,0.00,,,0.00,Wunderground v.1.15,2013-06-19 10:30:00,
2013-06-19 05:31:00,52.5,46.5,30.07,ENE,74,0.0,2.0,80,0.00,,,0.00,Wunderground v.1.15,2013-06-19 10:31:00,
2013-06-19 05:32:00,52.4,46.4,30.07,ENE,74,0.0,2.0,80,0.00,,,0.00,Wunderground v.1.15,2013-06-19 10:32:00,
2013-06-19 05:34:00,52.5,46.5,30.07,ENE,74,0.0,2.0,80,0.00,,,0.00,Wunderground v.1.15,2013-06-19 10:34:00,
2013-06-19 05:38:00,52.5,46.5,30.07,ENE,74,0.0,2.0,80,0.00,,,0.00,Wunderground v.1.15,2013-06-19 10:38:00,
2013-06-19 05:39:00,52.5,46.5,30.07,ENE,74,0.0,2.0,80,0.00,,,0.00,Wunderground v.1.15,2013-06-19 10:39:00,
2013-06-19 05:41:00,52.5,46.5,30.08,ENE,74,0.0,0.0,80,0.00,,,0.00,Wunderground v.1.15,2013-06-19 10:41:00,
2013-06-19 05:43:00,52.5,46.5,30.07,ENE,74,0.0,0.0,80,0.00,,,0.00,Wunderground v.1.15,2013-06-19 10:43:00,
2013-06-19 05:44:00,52.5,46.5,30.08,ENE,74,0.0,0.0,80,0.00,,,0.00,Wunderground v.1.15,2013-06-19 10:44:00,
2013-06-19 05:48:00,52.5,46.5,30.08,ENE,74,0.0,1.0,80,0.00,,,0.00,Wunderground v.1.15,2013-06-19 10:48:00,
2013-06-19 05:49:00,52.5,46.5,30.08,ENE,74,0.0,1.0,80,0.00,,,0.00,Wunderground v.1.15,2013-06-19 10:49:00,
2013-06-19 05:50:00,52.5,46.5,30.07,ENE,74,0.0,0.0,80,0.00,,,0.00,Wunderground v.1.15,2013-06-19 10:50:00,
2013-06-19 05:53:00,52.5,46.8,30.08,ENE,74,0.0,1.0,81,0.00,,,0.00,Wunderground v.1.15,2013-06-19 10:53:00,
2013-06-19 05:54:00,52.5,46.8,30.08,ENE,74,0.0,1.0,81,0.00,,,0.00,Wunderground v.1.15,2013-06-19 10:54:00,
2013-06-19 05:58:00,52.5,46.8,30.08,ENE,74,1.0,2.0,81,0.00,,,0.00,Wunderground v.1.15,2013-06-19 10:58:00,
2013-06-19 06:00:00,52.6,46.9,30.08,ENE,74,1.0,1.0,81,0.00,,,0.00,Wunderground v.1.15,2013-06-19 11:00:00,
2013-06-19 06:01:00,52.6,46.9,30.08,ENE,74,1.0,1.0,81,0.00,,,0.00,Wunderground v.1.15,2013-06-19 11:01:00,
2013-06-19 06:03:00,52.6,46.9,30.09,ENE,74,1.0,2.0,81,0.00,,,0.00,Wunderground v.1.15,2013-06-19 11:03:00,
2013-06-19 06:05:00,52.7,47.0,30.09,ENE,74,1.0,2.0,81,0.00,,,0.00,Wunderground v.1.15,2013-06-19 11:05:00,
2013-06-19 06:06:00,52.7,47.0,30.09,ENE,74,1.0,2.0,81,0.00,,,0.00,Wunderground v.1.15,2013-06-19 11:06:00,
2013-06-19 06:08:00,52.8,47.1,30.09,ENE,74,1.0,4.0,81,0.00,,,0.00,Wunderground v.1.15,2013-06-19 11:08:00,
2013-06-19 06:12:00,52.9,47.2,30.09,ENE,74,1.0,1.0,81,0.00,,,0.00,Wunderground v.1.15,2013-06-19 11:12:00,
2013-06-19 06:13:00,52.9,47.2,30.09,ENE,74,1.0,1.0,81,0.00,,,0.00,Wunderground v.1.15,2013-06-19 11:13:00,
2013-06-19 06:14:00,53.0,47.3,30.09,ENE,74,1.0,3.0,81,0.00,,,0.00,Wunderground v.1.15,2013-06-19 11:14:00,
2013-06-19 06:16:00,53.1,47.1,30.09,ENE,74,1.0,3.0,80,0.00,,,0.00,Wunderground v.1.15,2013-06-19 11:16:00,
2013-06-19 06:17:00,53.1,47.1,30.09,ENE,74,1.0,3.0,80,0.00,,,0.00,Wunderground v.1.15,2013-06-19 11:17:00,
2013-06-19 06:18:00,53.2,47.2,30.09,ENE,74,1.0,3.0,80,0.00,,,0.00,Wunderground v.1.15,2013-06-19 11:18:00,
2013-06-19 06:19:00,53.2,47.2,30.09,ENE,74,1.0,3.0,80,0.00,,,0.00,Wunderground v.1.15,2013-06-19 11:19:00,
2013-06-19 06:22:00,53.3,47.3,30.09,ENE,74,1.0,3.0,80,0.00,,,0.00,Wunderground v.1.15,2013-06-19 11:22:00,
2013-06-19 06:23:00,53.3,47.3,30.09,ENE,74,1.0,3.0,80,0.00,,,0.00,Wunderground v.1.15,2013-06-19 11:23:00,
2013-06-19 06:24:00,53.4,47.4,30.09,ENE,74,1.0,3.0,80,0.00,,,0.00,Wunderground v.1.15,2013-06-19 11:24:00,
2013-06-19 06:25:00,53.4,47.4,30.09,ENE,74,1.0,3.0,80,0.00,,,0.00,Wunderground v.1.15,2013-06-19 11:25:00,
2013-06-19 06:28:00,53.5,47.5,30.09,ENE,74,1.0,3.0,80,0.00,,,0.00,Wunderground v.1.15,2013-06-19 11:28:00,
2013-06-19 06:29:00,53.6,47.6,30.09,ENE,74,1.0,3.0,80,0.00,,,0.00,Wunderground v.1.15,2013-06-19 11:29:00,
2013-06-19 06:33:00,53.8,47.8,30.10,ENE,74,0.0,2.0,80,0.00,,,0.00,Wunderground v.1.15,2013-06-19 11:33:00,
2013-06-19 06:34:00,53.9,47.9,30.10,ENE,74,1.0,2.0,80,0.00,,,0.00,Wunderground v.1.15,2013-06-19 11:34:00,
2013-06-19 06:35:00,53.9,47.9,30.10,ENE,74,1.0,2.0,80,0.00,,,0.00,Wunderground v.1.15,2013-06-19 11:35:00,
2013-06-19 06:38:00,54.1,48.1,30.09,ENE,74,0.0,2.0,80,0.00,,,0.00,Wunderground v.1.15,2013-06-19 11:38:00,
2013-06-19 06:40:00,54.2,48.2,30.09,ENE,74,0.0,0.0,80,0.00,,,0.00,Wunderground v.1.15,2013-06-19 11:40:00,
2013-06-19 06:42:00,54.4,48.4,30.09,ENE,74,0.0,2.0,80,0.00,,,0.00,Wunderground v.1.15,2013-06-19 11:42:00,
2013-06-19 06:43:00,54.4,48.0,30.09,ENE,74,0.0,3.0,79,0.00,,,0.00,Wunderground v.1.15,2013-06-19 11:43:00,
2013-06-19 06:44:00,54.5,48.1,30.09,ENE,74,0.0,3.0,79,0.00,,,0.00,Wunderground v.1.15,2013-06-19 11:44:00,
2013-06-19 06:45:00,54.5,48.1,30.09,ENE,74,0.0,3.0,79,0.00,,,0.00,Wunderground v.1.15,2013-06-19 11:45:00,
2013-06-19 06:46:00,54.6,48.2,30.09,ENE,74,0.0,3.0,79,0.00,,,0.00,Wunderground v.1.15,2013-06-19 11:46:00,
2013-06-19 06:48:00,54.7,48.3,30.09,ENE,74,1.0,3.0,79,0.00,,,0.00,Wunderground v.1.15,2013-06-19 11:48:00,
2013-06-19 06:50:00,54.9,48.5,30.09,ENE,74,1.0,1.0,79,0.00,,,0.00,Wunderground v.1.15,2013-06-19 11:50:00,
2013-06-19 06:52:00,55.0,48.6,30.09,ENE,74,1.0,1.0,79,0.00,,,0.00,Wunderground v.1.15,2013-06-19 11:52:00,
2013-06-19 06:54:00,55.2,48.8,30.10,ENE,74,1.0,1.0,79,0.00,,,0.00,Wunderground v.1.15,2013-06-19 11:54:00,
2013-06-19 06:56:00,55.4,49.0,30.09,ENE,74,1.0,3.0,79,0.00,,,0.00,Wunderground v.1.15,2013-06-19 11:56:00,
2013-06-19 06:57:00,55.4,49.0,30.09,ENE,74,1.0,3.0,79,0.00,,,0.00,Wunderground v.1.15,2013-06-19 11:57:00,
2013-06-19 07:02:00,55.9,49.5,30.10,ENE,74,0.0,4.0,79,0.00,,,0.00,Wunderground v.1.15,2013-06-19 12:02:00,
2013-06-19 07:03:00,56.0,49.2,30.10,ENE,74,1.0,4.0,78,0.00,,,0.00,Wunderground v.1.15,2013-06-19 12:03:00,
2013-06-19 07:04:00,56.1,49.3,30.10,ENE,74,1.0,4.0,78,0.00,,,0.00,Wunderground v.1.15,2013-06-19 12:04:00,
2013-06-19 07:05:00,56.2,49.4,30.10,ENE,74,0.0,4.0,78,0.00,,,0.00,Wunderground v.1.15,2013-06-19 12:05:00,
2013-06-19 07:08:00,56.5,49.7,30.09,ENE,59,1.0,5.0,78,0.00,,,0.00,Wunderground v.1.15,2013-06-19 12:08:00,
2013-06-19 07:09:00,56.6,49.5,30.09,ENE,59,1.0,5.0,77,0.00,,,0.00,Wunderground v.1.15,2013-06-19 12:09:00,
2013-06-19 07:10:00,56.7,49.6,30.09,ENE,60,1.0,1.0,77,0.00,,,0.00,Wunderground v.1.15,2013-06-19 12:10:00,
2013-06-19 07:15:00,57.1,49.6,30.09,ENE,76,2.0,3.0,76,0.00,,,0.00,Wunderground v.1.15,2013-06-19 12:15:00,
2013-06-19 07:16:00,57.2,49.7,30.09,ENE,76,2.0,3.0,76,0.00,,,0.00,Wunderground v.1.15,2013-06-19 12:16:00,
2013-06-19 07:18:00,57.4,49.9,30.10,East,93,2.0,3.0,76,0.00,,,0.00,Wunderground v.1.15,2013-06-19 12:18:00,
2013-06-19 07:20:00,57.5,50.0,30.09,ESE,104,2.0,5.0,76,0.00,,,0.00,Wunderground v.1.15,2013-06-19 12:20:00,
2013-06-19 07:21:00,57.6,50.1,30.09,ESE,103,2.0,5.0,76,0.00,,,0.00,Wunderground v.1.15,2013-06-19 12:21:00,
2013-06-19 07:23:00,57.8,49.9,30.10,NE,38,2.0,9.0,75,0.00,,,0.00,Wunderground v.1.15,2013-06-19 12:23:00,
2013-06-19 07:24:00,57.9,50.4,30.09,SE,128,2.0,9.0,76,0.00,,,0.00,Wunderground v.1.15,2013-06-19 12:24:00,
2013-06-19 07:25:00,58.0,50.1,30.10,ESE,113,2.0,9.0,75,0.00,,,0.00,Wunderground v.1.15,2013-06-19 12:25:00,
2013-06-19 07:27:00,58.1,49.9,30.10,East,94,3.0,9.0,74,0.00,,,0.00,Wunderground v.1.15,2013-06-19 12:27:00,
2013-06-19 07:29:00,58.3,50.4,30.10,ESE,104,3.0,9.0,75,0.00,,,0.00,Wunderground v.1.15,2013-06-19 12:29:00,
2013-06-19 07:30:00,58.4,50.1,30.10,East,101,4.0,5.0,74,0.00,,,0.00,Wunderground v.1.15,2013-06-19 12:30:00,
2013-06-19 07:32:00,58.5,50.2,30.10,East,96,4.0,5.0,74,0.00,,,0.00,Wunderground v.1.15,2013-06-19 12:32:00,
2013-06-19 07:33:00,58.6,50.3,30.10,East,100,4.0,5.0,74,0.00,,,0.00,Wunderground v.1.15,2013-06-19 12:33:00,
2013-06-19 07:35:00,58.8,50.9,30.10,East,99,3.0,5.0,75,0.00,,,0.00,Wunderground v.1.15,2013-06-19 12:35:00,
2013-06-19 07:38:00,59.1,50.8,30.10,East,101,3.0,5.0,74,0.00,,,0.00,Wunderground v.1.15,2013-06-19 12:38:00,
2013-06-19 07:39:00,59.3,51.0,30.10,East,101,2.0,5.0,74,0.00,,,0.00,Wunderground v.1.15,2013-06-19 12:39:00,
2013-06-19 07:41:00,59.6,50.9,30.10,East,100,2.0,2.0,73,0.00,,,0.00,Wunderground v.1.15,2013-06-19 12:41:00,
2013-06-19 07:42:00,59.6,50.9,30.10,East,99,2.0,2.0,73,0.00,,,0.00,Wunderground v.1.15,2013-06-19 12:42:00,
2013-06-19 07:43:00,59.7,51.0,30.10,East,96,2.0,2.0,73,0.00,,,0.00,Wunderground v.1.15,2013-06-19 12:43:00,
2013-06-19 07:45:00,60.0,51.7,30.10,East,94,2.0,3.0,74,0.00,,,0.00,Wunderground v.1.15,2013-06-19 12:45:00,
2013-06-19 07:46:00,60.2,51.5,30.10,East,86,2.0,3.0,73,0.00,,,0.00,Wunderground v.1.15,2013-06-19 12:46:00,
2013-06-19 07:47:00,60.3,51.6,30.10,East,86,2.0,3.0,73,0.00,,,0.00,Wunderground v.1.15,2013-06-19 12:47:00,
2013-06-19 07:49:00,60.5,51.8,30.10,East,84,2.0,4.0,73,0.00,,,0.00,Wunderground v.1.15,2013-06-19 12:49:00,
2013-06-19 07:51:00,60.7,51.6,30.10,East,81,2.0,2.0,72,0.00,,,0.00,Wunderground v.1.15,2013-06-19 12:51:00,
2013-06-19 07:54:00,60.8,51.7,30.10,East,82,2.0,3.0,72,0.00,,,0.00,Wunderground v.1.15,2013-06-19 12:54:00,
2013-06-19 07:55:00,60.9,51.8,30.10,East,82,2.0,3.0,72,0.00,,,0.00,Wunderground v.1.15,2013-06-19 12:55:00,
2013-06-19 07:58:00,61.1,52.0,30.10,East,80,2.0,4.0,72,0.00,,,0.00,Wunderground v.1.15,2013-06-19 12:58:00,
2013-06-19 07:59:00,61.2,52.1,30.10,East,80,2.0,4.0,72,0.00,,,0.00,Wunderground v.1.15,2013-06-19 12:59:00,
2013-06-19 08:00:00,61.3,52.2,30.09,East,83,1.0,3.0,72,0.00,,,0.00,Wunderground v.1.15,2013-06-19 13:00:00,
2013-06-19 08:03:00,61.4,52.3,30.09,East,84,2.0,3.0,72,0.00,,,0.00,Wunderground v.1.15,2013-06-19 13:03:00,
2013-06-19 08:04:00,61.6,52.5,30.09,East,101,2.0,3.0,72,0.00,,,0.00,Wunderground v.1.15,2013-06-19 13:04:00,
2013-06-19 08:06:00,61.7,52.2,30.09,ESE,105,2.0,5.0,71,0.00,,,0.00,Wunderground v.1.15,2013-06-19 13:06:00,
2013-06-19 08:07:00,61.7,52.2,30.09,East,100,2.0,5.0,71,0.00,,,0.00,Wunderground v.1.15,2013-06-19 13:07:00,
2013-06-19 08:10:00,61.9,52.4,30.09,ESE,103,2.0,2.0,71,0.00,,,0.00,Wunderground v.1.15,2013-06-19 13:10:00,
2013-06-19 08:11:00,62.0,52.9,30.09,SE,142,2.0,2.0,72,0.00,,,0.00,Wunderground v.1.15,2013-06-19 13:11:00,
2013-06-19 08:12:00,62.1,53.3,30.09,SE,142,2.0,2.0,73,0.00,,,0.00,Wunderground v.1.15,2013-06-19 13:12:00,
2013-06-19 08:13:00,62.2,53.4,30.09,SE,141,2.0,2.0,73,0.00,,,0.00,Wunderground v.1.15,2013-06-19 13:13:00,
2013-06-19 08:14:00,62.3,53.5,30.09,ESE,120,2.0,2.0,73,0.00,,,0.00,Wunderground v.1.15,2013-06-19 13:14:00,
2013-06-19 08:17:00,62.6,53.1,30.09,East,101,2.0,3.0,71,0.00,,,0.00,Wunderground v.1.15,2013-06-19 13:17:00,
2013-06-19 08:20:00,62.9,53.4,30.09,ESE,103,2.0,2.0,71,0.00,,,0.00,Wunderground v.1.15,2013-06-19 13:20:00,
2013-06-19 08:21:00,63.1,53.5,30.09,SE,130,3.0,5.0,71,0.00,,,0.00,Wunderground v.1.15,2013-06-19 13:21:00,
2013-06-19 08:22:00,63.1,53.2,30.09,SE,128,3.0,5.0,70,0.00,,,0.00,Wunderground v.1.15,2013-06-19 13:22:00,
2013-06-19 08:26:00,63.6,54.0,30.10,SE,125,3.0,5.0,71,0.00,,,0.00,Wunderground v.1.15,2013-06-19 13:26:00,
2013-06-19 08:27:00,63.7,54.1,30.10,SE,125,3.0,5.0,71,0.00,,,0.00,Wunderground v.1.15,2013-06-19 13:27:00,
2013-06-19 08:28:00,63.8,53.8,30.10,ESE,122,2.0,5.0,70,0.00,,,0.00,Wunderground v.1.15,2013-06-19 13:28:00,
2013-06-19 08:31:00,64.2,53.8,30.10,ESE,123,2.0,2.0,69,0.00,,,0.00,Wunderground v.1.15,2013-06-19 13:31:00,
2013-06-19 08:32:00,64.3,53.9,30.10,ESE,123,2.0,3.0,69,0.00,,,0.00,Wunderground v.1.15,2013-06-19 13:32:00,
2013-06-19 08:34:00,64.5,54.5,30.10,SE,126,2.0,3.0,70,0.00,,,0.00,Wunderground v.1.15,2013-06-19 13:34:00,
2013-06-19 08:36:00,64.8,54.4,30.10,ESE,117,2.0,3.0,69,0.00,,,0.00,Wunderground v.1.15,2013-06-19 13:36:00,
2013-06-19 08:38:00,65.0,55.0,30.10,ESE,121,2.0,3.0,70,0.00,,,0.00,Wunderground v.1.15,2013-06-19 13:38:00,
2013-06-19 08:39:00,65.2,55.2,30.10,ESE,118,2.0,5.0,70,0.00,,,0.00,Wunderground v.1.15,2013-06-19 13:39:00,
2013-06-19 08:40:00,65.3,54.9,30.10,ESE,119,2.0,2.0,69,0.00,,,0.00,Wunderground v.1.15,2013-06-19 13:40:00,
2013-06-19 08:42:00,65.6,55.2,30.10,ESE,107,2.0,4.0,69,0.00,,,0.00,Wunderground v.1.15,2013-06-19 13:42:00,
2013-06-19 08:45:00,65.8,54.9,30.10,ESE,121,2.0,4.0,68,0.00,,,0.00,Wunderground v.1.15,2013-06-19 13:45:00,
2013-06-19 08:46:00,66.0,55.1,30.10,SE,146,2.0,6.0,68,0.00,,,0.00,Wunderground v.1.15,2013-06-19 13:46:00,
2013-06-19 08:49:00,66.2,55.3,30.10,SE,128,3.0,6.0,68,0.00,,,0.00,Wunderground v.1.15,2013-06-19 13:49:00,
2013-06-19 08:50:00,66.3,55.8,30.10,ESE,118,3.0,3.0,69,0.00,,,0.00,Wunderground v.1.15,2013-06-19 13:50:00,
2013-06-19 08:52:00,66.5,55.6,30.10,ESE,120,3.0,4.0,68,0.00,,,0.00,Wunderground v.1.15,2013-06-19 13:52:00,
2013-06-19 08:55:00,66.7,55.0,30.10,ESE,112,3.0,4.0,66,0.00,,,0.00,Wunderground v.1.15,2013-06-19 13:55:00,
2013-06-19 08:57:00,66.8,55.5,30.10,ESE,114,3.0,5.0,67,0.00,,,0.00,Wunderground v.1.15,2013-06-19 13:57:00,
2013-06-19 08:59:00,66.9,56.0,30.10,ESE,114,2.0,5.0,68,0.00,,,0.00,Wunderground v.1.15,2013-06-19 13:59:00,
2013-06-19 09:02:00,67.2,56.3,30.10,ESE,118,2.0,5.0,68,0.00,,,0.00,Wunderground v.1.15,2013-06-19 14:02:00,
2013-06-19 09:04:00,67.3,56.4,30.10,SE,145,2.0,5.0,68,0.00,,,0.00,Wunderground v.1.15,2013-06-19 14:04:00,
2013-06-19 09:05:00,67.4,56.1,30.10,SE,145,2.0,5.0,67,0.00,,,0.00,Wunderground v.1.15,2013-06-19 14:05:00,
2013-06-19 09:06:00,67.5,56.2,30.10,SE,143,2.0,5.0,67,0.00,,,0.00,Wunderground v.1.15,2013-06-19 14:06:00,
2013-06-19 09:09:00,67.7,55.9,30.10,ESE,107,2.0,5.0,66,0.00,,,0.00,Wunderground v.1.15,2013-06-19 14:09:00,
2013-06-19 09:11:00,67.9,56.9,30.11,East,97,2.0,4.0,68,0.00,,,0.00,Wunderground v.1.15,2013-06-19 14:11:00,
2013-06-19 09:12:00,68.0,57.0,30.11,East,96,2.0,4.0,68,0.00,,,0.00,Wunderground v.1.15,2013-06-19 14:12:00,
2013-06-19 09:16:00,68.1,56.3,30.11,SE,144,2.0,4.0,66,0.00,,,0.00,Wunderground v.1.15,2013-06-19 14:16:00,
2013-06-19 09:18:00,68.2,56.4,30.11,South,169,3.0,4.0,66,0.00,,,0.00,Wunderground v.1.15,2013-06-19 14:18:00,
2013-06-19 09:19:00,68.2,56.4,30.11,SSE,164,3.0,4.0,66,0.00,,,0.00,Wunderground v.1.15,2013-06-19 14:19:00,
2013-06-19 09:20:00,68.2,56.8,30.11,SSE,150,3.0,5.0,67,0.00,,,0.00,Wunderground v.1.15,2013-06-19 14:20:00,
2013-06-19 09:21:00,68.3,57.3,30.11,ESE,115,3.0,5.0,68,0.00,,,0.00,Wunderground v.1.15,2013-06-19 14:21:00,
2013-06-19 09:22:00,68.3,56.9,30.11,ESE,115,3.0,5.0,67,0.00,,,0.00,Wunderground v.1.15,2013-06-19 14:22:00,
2013-06-19 09:26:00,68.5,57.1,30.11,ESE,109,3.0,5.0,67,0.00,,,0.00,Wunderground v.1.15,2013-06-19 14:26:00,
2013-06-19 09:28:00,68.6,56.8,30.11,ESE,114,2.0,5.0,66,0.00,,,0.00,Wunderground v.1.15,2013-06-19 14:28:00,
2013-06-19 09:29:00,68.6,57.6,30.11,ESE,114,2.0,5.0,68,0.00,,,0.00,Wunderground v.1.15,2013-06-19 14:29:00,
2013-06-19 09:32:00,68.9,57.5,30.11,ESE,114,2.0,2.0,67,0.00,,,0.00,Wunderground v.1.15,2013-06-19 14:32:00,
2013-06-19 09:33:00,69.0,57.6,30.11,ESE,114,2.0,2.0,67,0.00,,,0.00,Wunderground v.1.15,2013-06-19 14:33:00,
2013-06-19 09:35:00,69.2,58.2,30.11,ESE,114,1.0,2.0,68,0.00,,,0.00,Wunderground v.1.15,2013-06-19 14:35:00,
2013-06-19 09:37:00,69.4,57.5,30.11,SSE,148,2.0,4.0,66,0.00,,,0.00,Wunderground v.1.15,2013-06-19 14:37:00,
2013-06-19 09:39:00,69.5,58.1,30.11,SSE,148,1.0,4.0,67,0.00,,,0.00,Wunderground v.1.15,2013-06-19 14:39:00,
2013-06-19 09:42:00,69.8,58.3,30.11,SE,128,1.0,3.0,67,0.00,,,0.00,Wunderground v.1.15,2013-06-19 14:42:00,
2013-06-19 09:43:00,69.9,58.0,30.11,SE,128,1.0,3.0,66,0.00,,,0.00,Wunderground v.1.15,2013-06-19 14:43:00,
2013-06-19 09:45:00,70.0,58.1,30.11,East,94,2.0,4.0,66,0.00,,,0.00,Wunderground v.1.15,2013-06-19 14:45:00,
2013-06-19 09:46:00,70.0,58.1,30.11,East,91,2.0,4.0,66,0.00,,,0.00,Wunderground v.1.15,2013-06-19 14:46:00,
2013-06-19 09:49:00,70.1,59.0,30.10,East,93,2.0,4.0,68,0.00,,,0.00,Wunderground v.1.15,2013-06-19 14:49:00,
2013-06-19 09:51:00,70.3,58.4,30.10,ESE,115,2.0,5.0,66,0.00,,,0.00,Wunderground v.1.15,2013-06-19 14:51:00,
2013-06-19 09:52:00,70.3,58.8,30.10,ESE,116,2.0,5.0,67,0.00,,,0.00,Wunderground v.1.15,2013-06-19 14:52:00,
2013-06-19 09:53:00,70.4,58.1,30.10,ESE,116,2.0,5.0,65,0.00,,,0.00,Wunderground v.1.15,2013-06-19 14:53:00,
2013-06-19 09:55:00,70.5,58.6,30.10,SE,140,2.0,5.0,66,0.00,,,0.00,Wunderground v.1.15,2013-06-19 14:55:00,
2013-06-19 09:58:00,70.7,59.2,30.10,SE,139,2.0,5.0,67,0.00,,,0.00,Wunderground v.1.15,2013-06-19 14:58:00,
2013-06-19 09:59:00,70.8,58.9,30.10,SE,140,3.0,5.0,66,0.00,,,0.00,Wunderground v.1.15,2013-06-19 14:59:00,
2013-06-19 10:01:00,70.8,59.3,30.10,SE,135,2.0,3.0,67,0.00,,,0.00,Wunderground v.1.15,2013-06-19 15:01:00,
2013-06-19 10:05:00,70.9,59.0,30.09,SSE,159,3.0,4.0,66,0.00,,,0.00,Wunderground v.1.15,2013-06-19 15:05:00,
2013-06-19 10:06:00,70.9,59.0,30.09,SSE,161,3.0,4.0,66,0.00,,,0.00,Wunderground v.1.15,2013-06-19 15:06:00,
2013-06-19 10:07:00,70.9,59.0,30.09,ESE,106,3.0,6.0,66,0.00,,,0.00,Wunderground v.1.15,2013-06-19 15:07:00,
2013-06-19 10:08:00,70.9,58.5,30.09,ESE,106,3.0,6.0,65,0.00,,,0.00,Wunderground v.1.15,2013-06-19 15:08:00,
2013-06-19 10:12:00,71.1,59.2,30.09,South,180,3.0,4.0,66,0.00,,,0.00,Wunderground v.1.15,2013-06-19 15:12:00,
2013-06-19 10:14:00,71.2,58.8,30.09,SSE,161,3.0,4.0,65,0.00,,,0.00,Wunderground v.1.15,2013-06-19 15:14:00,
2013-06-19 10:15:00,71.2,59.3,30.09,SSE,159,3.0,4.0,66,0.00,,,0.00,Wunderground v.1.15,2013-06-19 15:15:00,
2013-06-19 10:17:00,71.2,58.8,30.09,SSE,161,3.0,4.0,65,0.00,,,0.00,Wunderground v.1.15,2013-06-19 15:17:00,
2013-06-19 10:20:00,71.2,59.3,30.09,ESE,109,3.0,3.0,66,0.00,,,0.00,Wunderground v.1.15,2013-06-19 15:20:00,
2013-06-19 10:21:00,71.4,60.3,30.09,ESE,102,3.0,5.0,68,0.00,,,0.00,Wunderground v.1.15,2013-06-19 15:21:00,
2013-06-19 10:22:00,71.4,60.3,30.09,East,98,3.0,5.0,68,0.00,,,0.00,Wunderground v.1.15,2013-06-19 15:22:00,
2013-06-19 10:26:00,71.7,60.6,30.09,SE,128,2.0,5.0,68,0.00,,,0.00,Wunderground v.1.15,2013-06-19 15:26:00,
2013-06-19 10:27:00,71.7,59.7,30.09,SE,128,2.0,5.0,66,0.00,,,0.00,Wunderground v.1.15,2013-06-19 15:27:00,
2013-06-19 10:29:00,71.7,60.2,30.09,SSE,160,2.0,5.0,67,0.00,,,0.00,Wunderground v.1.15,2013-06-19 15:29:00,
2013-06-19 10:30:00,71.8,59.4,30.09,SSE,160,2.0,2.0,65,0.00,,,0.00,Wunderground v.1.15,2013-06-19 15:30:00,
2013-06-19 10:32:00,72.0,60.4,30.09,South,179,3.0,3.0,67,0.00,,,0.00,Wunderground v.1.15,2013-06-19 15:32:00,
2013-06-19 10:35:00,72.1,60.1,30.09,SSE,159,3.0,3.0,66,0.00,,,0.00,Wunderground v.1.15,2013-06-19 15:35:00,
2013-06-19 10:36:00,72.2,60.2,30.09,SSE,161,3.0,5.0,66,0.00,,,0.00,Wunderground v.1.15,2013-06-19 15:36:00,
2013-06-19 10:38:00,72.3,59.9,30.09,South,171,3.0,5.0,65,0.00,,,0.00,Wunderground v.1.15,2013-06-19 15:38:00,
2013-06-19 10:40:00,72.4,60.8,30.09,South,169,3.0,3.0,67,0.00,,,0.00,Wunderground v.1.15,2013-06-19 15:40:00,
2013-06-19 10:42:00,72.5,60.5,30.09,South,182,3.0,6.0,66,0.00,,,0.00,Wunderground v.1.15,2013-06-19 15:42:00,
2013-06-19 10:44:00,72.6,60.6,30.09,SSE,147,3.0,6.0,66,0.00,,,0.00,Wunderground v.1.15,2013-06-19 15:44:00,
2013-06-19 10:46:00,72.7,60.7,30.09,SE,146,3.0,6.0,66,0.00,,,0.00,Wunderground v.1.15,2013-06-19 15:46:00,
2013-06-19 10:47:00,72.8,60.3,30.09,SSE,148,3.0,6.0,65,0.00,,,0.00,Wunderground v.1.15,2013-06-19 15:47:00,
2013-06-19 10:48:00,72.8,60.3,30.09,South,169,3.0,6.0,65,0.00,,,0.00,Wunderground v.1.15,2013-06-19 15:48:00,
2013-06-19 10:50:00,72.9,60.0,30.09,SSE,168,3.0,3.0,64,0.00,,,0.00,Wunderground v.1.15,2013-06-19 15:50:00,
2013-06-19 10:53:00,73.0,60.5,30.09,ESE,107,2.0,4.0,65,0.00,,,0.00,Wunderground v.1.15,2013-06-19 15:53:00,
2013-06-19 10:55:00,73.1,60.6,30.09,ESE,119,2.0,4.0,65,0.00,,,0.00,Wunderground v.1.15,2013-06-19 15:55:00,
2013-06-19 10:58:00,73.1,61.1,30.09,SE,130,2.0,4.0,66,0.00,,,0.00,Wunderground v.1.15,2013-06-19 15:58:00,
2013-06-19 11:00:00,73.1,61.1,30.09,ESE,116,2.0,2.0,66,0.00,,,0.00,Wunderground v.1.15,2013-06-19 16:00:00,
2013-06-19 11:01:00,73.2,61.2,30.09,ESE,118,2.0,2.0,66,0.00,,,0.00,Wunderground v.1.15,2013-06-19 16:01:00,
2013-06-19 11:03:00,73.3,60.8,30.09,SE,146,2.0,4.0,65,0.00,,,0.00,Wunderground v.1.15,2013-06-19 16:03:00,
2013-06-19 11:05:00,73.4,60.0,30.09,SE,146,2.0,4.0,63,0.00,,,0.00,Wunderground v.1.15,2013-06-19 16:05:00,
2013-06-19 11:07:00,73.5,60.6,30.08,SSE,155,2.0,5.0,64,0.00,,,0.00,Wunderground v.1.15,2013-06-19 16:07:00,
2013-06-19 11:10:00,73.7,60.8,30.08,SSE,164,3.0,5.0,64,0.00,,,0.00,Wunderground v.1.15,2013-06-19 16:10:00,
2013-06-19 11:11:00,73.8,61.3,30.08,SSE,165,3.0,5.0,65,0.00,,,0.00,Wunderground v.1.15,2013-06-19 16:11:00,
2013-06-19 11:13:00,74.0,61.9,30.08,South,178,3.0,5.0,66,0.00,,,0.00,Wunderground v.1.15,2013-06-19 16:13:00,
2013-06-19 11:15:00,74.1,60.7,30.09,South,177,3.0,5.0,63,0.00,,,0.00,Wunderground v.1.15,2013-06-19 16:15:00,
2013-06-19 11:18:00,74.2,61.7,30.08,South,173,2.0,5.0,65,0.00,,,0.00,Wunderground v.1.15,2013-06-19 16:18:00,
2013-06-19 11:19:00,74.3,62.2,30.08,SE,146,2.0,5.0,66,0.00,,,0.00,Wunderground v.1.15,2013-06-19 16:19:00,
2013-06-19 11:20:00,74.3,60.9,30.08,SE,146,2.0,2.0,63,0.00,,,0.00,Wunderground v.1.15,2013-06-19 16:20:00,
2013-06-19 11:23:00,74.4,61.4,30.08,SE,127,2.0,3.0,64,0.00,,,0.00,Wunderground v.1.15,2013-06-19 16:23:00,
2013-06-19 11:25:00,74.4,61.0,30.08,SE,126,1.0,3.0,63,0.00,,,0.00,Wunderground v.1.15,2013-06-19 16:25:00,
2013-06-19 11:26:00,74.5,61.5,30.08,SE,126,1.0,3.0,64,0.00,,,0.00,Wunderground v.1.15,2013-06-19 16:26:00,
2013-06-19 11:28:00,74.5,60.6,30.08,SE,126,2.0,3.0,62,0.00,,,0.00,Wunderground v.1.15,2013-06-19 16:28:00,
2013-06-19 11:30:00,74.7,62.1,30.08,SE,126,2.0,2.0,65,0.00,,,0.00,Wunderground v.1.15,2013-06-19 16:30:00,
2013-06-19 11:31:00,74.9,62.3,30.08,SE,135,2.0,2.0,65,0.00,,,0.00,Wunderground v.1.15,2013-06-19 16:31:00,
2013-06-19 11:34:00,75.0,61.1,30.08,SSW,210,2.0,4.0,62,0.00,,,0.00,Wunderground v.1.15,2013-06-19 16:34:00,
2013-06-19 11:36:00,74.8,60.4,30.08,SW,227,2.0,4.0,61,0.00,,,0.00,Wunderground v.1.15,2013-06-19 16:36:00,
2013-06-19 11:38:00,74.7,60.4,30.08,SW,227,2.0,4.0,61,0.00,,,0.00,Wunderground v.1.15,2013-06-19 16:38:00,
2013-06-19 11:40:00,74.6,60.3,30.08,South,179,2.0,4.0,61,0.00,,,0.00,Wunderground v.1.15,2013-06-19 16:40:00,
2013-06-19 11:43:00,74.6,62.1,30.08,South,179,2.0,4.0,65,0.00,,,0.00,Wunderground v.1.15,2013-06-19 16:43:00,
2013-06-19 11:45:00,74.7,60.8,30.08,ESE,119,2.0,4.0,62,0.00,,,0.00,Wunderground v.1.15,2013-06-19 16:45:00,
2013-06-19 11:48:00,74.9,61.5,30.08,East,92,2.0,5.0,63,0.00,,,0.00,Wunderground v.1.15,2013-06-19 16:48:00,
2013-06-19 11:50:00,75.0,62.0,30.08,East,98,3.0,3.0,64,0.00,,,0.00,Wunderground v.1.15,2013-06-19 16:50:00,
2013-06-19 11:52:00,75.1,60.7,30.07,SSE,162,3.0,7.0,61,0.00,,,0.00,Wunderground v.1.15,2013-06-19 16:52:00,
2013-06-19 11:53:00,75.1,60.7,30.07,SSE,162,3.0,7.0,61,0.00,,,0.00,Wunderground v.1.15,2013-06-19 16:53:00,
2013-06-19 11:57:00,75.3,60.0,30.07,South,182,4.0,7.0,59,0.00,,,0.00,Wunderground v.1.15,2013-06-19 16:57:00,
2013-06-19 12:00:00,75.5,61.1,30.08,South,182,3.0,3.0,61,0.00,,,0.00,Wunderground v.1.15,2013-06-19 17:00:00,
2013-06-19 12:01:00,75.5,60.6,30.08,South,182,3.0,3.0,60,0.00,,,0.00,Wunderground v.1.15,2013-06-19 17:01:00,
2013-06-19 12:02:00,75.6,60.7,30.08,South,182,3.0,3.0,60,0.00,,,0.00,Wunderground v.1.15,2013-06-19 17:02:00,
2013-06-19 12:03:00,75.6,60.3,30.08,South,182,3.0,3.0,59,0.00,,,0.00,Wunderground v.1.15,2013-06-19 17:03:00,
2013-06-19 12:04:00,75.7,61.3,30.08,South,182,2.0,3.0,61,0.00,,,0.00,Wunderground v.1.15,2013-06-19 17:04:00,
2013-06-19 12:08:00,76.0,60.2,30.08,South,182,1.0,3.0,58,0.00,,,0.00,Wunderground v.1.15,2013-06-19 17:08:00,
2013-06-19 12:09:00,76.1,62.1,30.08,South,183,1.0,3.0,62,0.00,,,0.00,Wunderground v.1.15,2013-06-19 17:09:00,
2013-06-19 12:11:00,76.1,60.2,30.07,South,175,1.0,4.0,58,0.00,,,0.00,Wunderground v.1.15,2013-06-19 17:11:00,
2013-06-19 12:13:00,76.0,58.7,30.07,South,175,1.0,4.0,55,0.00,,,0.00,Wunderground v.1.15,2013-06-19 17:13:00,
2013-06-19 12:14:00,76.0,60.2,30.08,South,177,1.0,5.0,58,0.00,,,0.00,Wunderground v.1.15,2013-06-19 17:14:00,
2013-06-19 12:15:00,76.0,60.2,30.07,South,176,1.0,5.0,58,0.00,,,0.00,Wunderground v.1.15,2013-06-19 17:15:00,
2013-06-19 12:19:00,76.2,60.3,30.07,SSW,206,2.0,5.0,58,0.00,,,0.00,Wunderground v.1.15,2013-06-19 17:19:00,
2013-06-19 12:20:00,76.2,59.9,30.07,SSW,205,2.0,2.0,57,0.00,,,0.00,Wunderground v.1.15,2013-06-19 17:20:00,
2013-06-19 12:22:00,76.3,59.9,30.07,SSW,196,2.0,5.0,57,0.00,,,0.00,Wunderground v.1.15,2013-06-19 17:22:00,
2013-06-19 12:25:00,76.4,59.0,30.07,South,187,3.0,5.0,55,0.00,,,0.00,Wunderground v.1.15,2013-06-19 17:25:00,
2013-06-19 12:26:00,76.4,59.5,30.07,South,189,3.0,5.0,56,0.00,,,0.00,Wunderground v.1.15,2013-06-19 17:26:00,
2013-06-19 12:27:00,76.4,59.5,30.07,South,189,2.0,5.0,56,0.00,,,0.00,Wunderground v.1.15,2013-06-19 17:27:00,
2013-06-19 12:29:00,76.4,59.5,30.07,South,187,2.0,5.0,56,0.00,,,0.00,Wunderground v.1.15,2013-06-19 17:29:00,
2013-06-19 12:30:00,76.4,59.5,30.07,South,187,2.0,3.0,56,0.00,,,0.00,Wunderground v.1.15,2013-06-19 17:30:00,
2013-06-19 12:32:00,76.5,60.1,30.07,South,190,1.0,4.0,57,0.00,,,0.00,Wunderground v.1.15,2013-06-19 17:32:00,
2013-06-19 12:33:00,76.5,59.6,30.07,South,190,1.0,4.0,56,0.00,,,0.00,Wunderground v.1.15,2013-06-19 17:33:00,
2013-06-19 12:35:00,76.5,59.6,30.07,South,190,1.0,4.0,56,0.00,,,0.00,Wunderground v.1.15,2013-06-19 17:35:00,
2013-06-19 12:38:00,76.6,61.2,30.07,South,190,1.0,4.0,59,0.00,,,0.00,Wunderground v.1.15,2013-06-19 17:38:00,
2013-06-19 12:39:00,76.7,61.3,30.07,SE,127,1.0,5.0,59,0.00,,,0.00,Wunderground v.1.15,2013-06-19 17:39:00,
2013-06-19 12:41:00,76.7,58.8,30.07,SE,138,2.0,3.0,54,0.00,,,0.00,Wunderground v.1.15,2013-06-19 17:41:00,
2013-06-19 12:44:00,76.8,58.9,30.07,SE,138,2.0,3.0,54,0.00,,,0.00,Wunderground v.1.15,2013-06-19 17:44:00,
2013-06-19 12:46:00,76.8,58.4,30.07,SSE,148,2.0,3.0,53,0.00,,,0.00,Wunderground v.1.15,2013-06-19 17:46:00,
2013-06-19 12:49:00,76.8,57.8,30.06,SSE,147,3.0,3.0,52,0.00,,,0.00,Wunderground v.1.15,2013-06-19 17:49:00,
2013-06-19 12:50:00,76.7,58.3,30.06,SSE,147,2.0,2.0,53,0.00,,,0.00,Wunderground v.1.15,2013-06-19 17:50:00,
2013-06-19 12:51:00,76.7,59.3,30.06,SE,144,2.0,2.0,55,0.00,,,0.00,Wunderground v.1.15,2013-06-19 17:51:00,
2013-06-19 12:52:00,76.7,58.8,30.06,SE,140,2.0,2.0,54,0.00,,,0.00,Wunderground v.1.15,2013-06-19 17:52:00,
2013-06-19 12:53:00,76.7,57.7,30.06,SE,138,2.0,2.0,52,0.00,,,0.00,Wunderground v.1.15,2013-06-19 17:53:00,
2013-06-19 12:58:00,76.8,60.4,30.06,SSE,154,1.0,3.0,57,0.00,,,0.00,Wunderground v.1.15,2013-06-19 17:58:00,
2013-06-19 12:59:00,76.9,60.0,30.06,South,184,1.0,4.0,56,0.00,,,0.00,Wunderground v.1.15,2013-06-19 17:59:00,
2013-06-19 13:00:00,77.0,59.6,30.06,South,186,1.0,4.0,55,0.00,,,0.00,Wunderground v.1.15,2013-06-19 18:00:00,
2013-06-19 13:01:00,77.1,59.7,30.06,South,186,2.0,4.0,55,0.00,,,0.00,Wunderground v.1.15,2013-06-19 18:01:00,
2013-06-19 13:02:00,77.1,59.7,30.06,South,186,2.0,4.0,55,0.00,,,0.00,Wunderground v.1.15,2013-06-19 18:02:00,
2013-06-19 13:04:00,77.3,60.4,30.06,South,187,2.0,4.0,56,0.00,,,0.00,Wunderground v.1.15,2013-06-19 18:04:00,
2013-06-19 13:07:00,77.5,59.5,30.06,South,187,3.0,4.0,54,0.00,,,0.00,Wunderground v.1.15,2013-06-19 18:07:00,
2013-06-19 13:08:00,77.6,60.2,30.06,South,187,3.0,4.0,55,0.00,,,0.00,Wunderground v.1.15,2013-06-19 18:08:00,
2013-06-19 13:10:00,77.6,58.0,30.06,South,173,3.0,3.0,51,0.00,,,0.00,Wunderground v.1.15,2013-06-19 18:10:00,
2013-06-19 13:11:00,77.6,58.0,30.06,South,173,2.0,3.0,51,0.00,,,0.00,Wunderground v.1.15,2013-06-19 18:11:00,
2013-06-19 13:14:00,77.6,59.1,30.05,South,173,2.0,3.0,53,0.00,,,0.00,Wunderground v.1.15,2013-06-19 18:14:00,
2013-06-19 13:16:00,77.6,60.2,30.05,South,173,2.0,3.0,55,0.00,,,0.00,Wunderground v.1.15,2013-06-19 18:16:00,
2013-06-19 13:17:00,77.6,60.2,30.05,South,173,1.0,3.0,55,0.00,,,0.00,Wunderground v.1.15,2013-06-19 18:17:00,
2013-06-19 13:19:00,77.6,58.0,30.05,South,173,1.0,3.0,51,0.00,,,0.00,Wunderground v.1.15,2013-06-19 18:19:00,
2013-06-19 13:20:00,77.6,58.6,30.05,South,173,1.0,1.0,52,0.00,,,0.00,Wunderground v.1.15,2013-06-19 18:20:00,
2013-06-19 13:22:00,77.5,59.0,30.05,South,173,1.0,1.0,53,0.00,,,0.00,Wunderground v.1.15,2013-06-19 18:22:00,
2013-06-19 13:24:00,77.6,60.2,30.05,South,171,1.0,4.0,55,0.00,,,0.00,Wunderground v.1.15,2013-06-19 18:24:00,
2013-06-19 13:25:00,77.6,58.6,30.05,SSE,164,1.0,4.0,52,0.00,,,0.00,Wunderground v.1.15,2013-06-19 18:25:00,
2013-06-19 13:27:00,77.6,59.1,30.05,SSE,159,1.0,4.0,53,0.00,,,0.00,Wunderground v.1.15,2013-06-19 18:27:00,
2013-06-19 13:28:00,77.7,59.2,30.05,SSE,161,1.0,4.0,53,0.00,,,0.00,Wunderground v.1.15,2013-06-19 18:28:00,
2013-06-19 13:30:00,77.8,59.8,30.05,SE,142,2.0,3.0,54,0.00,,,0.00,Wunderground v.1.15,2013-06-19 18:30:00,
2013-06-19 13:31:00,77.9,58.9,30.05,SE,146,2.0,3.0,52,0.00,,,0.00,Wunderground v.1.15,2013-06-19 18:31:00,
2013-06-19 13:35:00,77.9,58.3,30.05,SE,145,2.0,4.0,51,0.00,,,0.00,Wunderground v.1.15,2013-06-19 18:35:00,
2013-06-19 13:37:00,77.9,57.2,30.05,SE,145,2.0,4.0,49,0.00,,,0.00,Wunderground v.1.15,2013-06-19 18:37:00,
2013-06-19 13:38:00,77.9,57.2,30.05,SE,145,2.0,4.0,49,0.00,,,0.00,Wunderground v.1.15,2013-06-19 18:38:00,
2013-06-19 13:39:00,77.9,57.2,30.05,SE,144,2.0,4.0,49,0.00,,,0.00,Wunderground v.1.15,2013-06-19 18:39:00,
2013-06-19 13:40:00,77.9,57.8,30.05,SE,140,2.0,2.0,50,0.00,,,0.00,Wunderground v.1.15,2013-06-19 18:40:00,
2013-06-19 13:41:00,78.0,58.4,30.05,ESE,115,2.0,2.0,51,0.00,,,0.00,Wunderground v.1.15,2013-06-19 18:41:00,
2013-06-19 13:43:00,78.0,59.5,30.05,ESE,115,2.0,4.0,53,0.00,,,0.00,Wunderground v.1.15,2013-06-19 18:43:00,
2013-06-19 13:44:00,78.1,58.5,30.05,ESE,116,2.0,4.0,51,0.00,,,0.00,Wunderground v.1.15,2013-06-19 18:44:00,
2013-06-19 13:46:00,78.1,58.5,30.05,ESE,114,2.0,4.0,51,0.00,,,0.00,Wunderground v.1.15,2013-06-19 18:46:00,
2013-06-19 13:50:00,78.2,58.6,30.05,ESE,111,2.0,5.0,51,0.00,,,0.00,Wunderground v.1.15,2013-06-19 18:50:00,
2013-06-19 13:51:00,78.2,58.0,30.05,ESE,122,2.0,5.0,50,0.00,,,0.00,Wunderground v.1.15,2013-06-19 18:51:00,
2013-06-19 13:56:00,78.4,61.4,30.05,South,186,2.0,5.0,56,0.00,,,0.00,Wunderground v.1.15,2013-06-19 18:56:00,
2013-06-19 13:57:00,78.5,61.5,30.04,South,171,3.0,6.0,56,0.00,,,0.00,Wunderground v.1.15,2013-06-19 18:57:00,
2013-06-19 13:58:00,78.5,58.9,30.05,South,177,3.0,6.0,51,0.00,,,0.00,Wunderground v.1.15,2013-06-19 18:58:00,
2013-06-19 14:00:00,78.7,57.9,30.05,SSE,167,3.0,3.0,49,0.00,,,0.00,Wunderground v.1.15,2013-06-19 19:00:00,
2013-06-19 14:03:00,78.8,57.4,30.04,SE,143,3.0,3.0,48,0.00,,,0.00,Wunderground v.1.15,2013-06-19 19:03:00,
2013-06-19 14:04:00,78.8,57.4,30.04,SE,143,3.0,3.0,48,0.00,,,0.00,Wunderground v.1.15,2013-06-19 19:04:00,
2013-06-19 14:06:00,78.9,59.2,30.04,SE,145,2.0,3.0,51,0.00,,,0.00,Wunderground v.1.15,2013-06-19 19:06:00,
2013-06-19 14:07:00,78.9,59.2,30.04,SE,146,2.0,3.0,51,0.00,,,0.00,Wunderground v.1.15,2013-06-19 19:07:00,
2013-06-19 14:08:00,78.9,59.8,30.04,SE,146,2.0,3.0,52,0.00,,,0.00,Wunderground v.1.15,2013-06-19 19:08:00,
2013-06-19 14:11:00,79.1,58.9,30.04,SE,143,1.0,2.0,50,0.00,,,0.00,Wunderground v.1.15,2013-06-19 19:11:00,
2013-06-19 14:13:00,79.1,57.7,30.04,ESE,102,1.0,4.0,48,0.00,,,0.00,Wunderground v.1.15,2013-06-19 19:13:00,
2013-06-19 14:15:00,79.2,59.0,30.04,ESE,102,1.0,4.0,50,0.00,,,0.00,Wunderground v.1.15,2013-06-19 19:15:00,
2013-06-19 14:16:00,79.2,60.1,30.04,East,101,2.0,4.0,52,0.00,,,0.00,Wunderground v.1.15,2013-06-19 19:16:00,
2013-06-19 14:19:00,79.2,57.8,30.04,SE,124,2.0,4.0,48,0.00,,,0.00,Wunderground v.1.15,2013-06-19 19:19:00,
2013-06-19 14:21:00,79.3,59.6,30.04,SSE,161,2.0,6.0,51,0.00,,,0.00,Wunderground v.1.15,2013-06-19 19:21:00,
2013-06-19 14:24:00,79.4,59.1,30.04,SSE,162,2.0,6.0,50,0.00,,,0.00,Wunderground v.1.15,2013-06-19 19:24:00,
2013-06-19 14:25:00,79.4,59.7,30.04,South,183,2.0,6.0,51,0.00,,,0.00,Wunderground v.1.15,2013-06-19 19:25:00,
2013-06-19 14:26:00,79.6,59.3,30.04,South,182,2.0,6.0,50,0.00,,,0.00,Wunderground v.1.15,2013-06-19 19:26:00,
2013-06-19 14:29:00,79.7,58.3,30.04,South,178,2.0,6.0,48,0.00,,,0.00,Wunderground v.1.15,2013-06-19 19:29:00,
2013-06-19 14:30:00,79.7,58.8,30.04,South,178,2.0,2.0,49,0.00,,,0.00,Wunderground v.1.15,2013-06-19 19:30:00,
2013-06-19 14:31:00,79.7,57.1,30.04,South,177,2.0,2.0,46,0.00,,,0.00,Wunderground v.1.15,2013-06-19 19:31:00,
2013-06-19 14:32:00,79.7,57.1,30.04,South,177,2.0,2.0,46,0.00,,,0.00,Wunderground v.1.15,2013-06-19 19:32:00,
2013-06-19 14:34:00,79.6,56.4,30.04,South,176,2.0,3.0,45,0.00,,,0.00,Wunderground v.1.15,2013-06-19 19:34:00,
2013-06-19 14:36:00,79.6,57.0,30.04,South,176,2.0,3.0,46,0.00,,,0.00,Wunderground v.1.15,2013-06-19 19:36:00,
2013-06-19 14:37:00,79.6,57.0,30.04,South,176,2.0,3.0,46,0.00,,,0.00,Wunderground v.1.15,2013-06-19 19:37:00,
2013-06-19 14:41:00,79.7,60.0,30.04,South,178,1.0,4.0,51,0.00,,,0.00,Wunderground v.1.15,2013-06-19 19:41:00,
2013-06-19 14:43:00,79.8,58.9,30.04,SSW,202,1.0,5.0,49,0.00,,,0.00,Wunderground v.1.15,2013-06-19 19:43:00,
2013-06-19 14:44:00,79.8,59.5,30.04,SSW,204,1.0,5.0,50,0.00,,,0.00,Wunderground v.1.15,2013-06-19 19:44:00,
2013-06-19 14:47:00,80.0,58.0,30.04,SSW,207,2.0,5.0,47,0.00,,,0.00,Wunderground v.1.15,2013-06-19 19:47:00,
2013-06-19 14:48:00,80.0,59.1,30.04,SSW,207,2.0,5.0,49,0.00,,,0.00,Wunderground v.1.15,2013-06-19 19:48:00,
2013-06-19 14:50:00,80.1,59.8,30.04,SSW,203,2.0,4.0,50,0.00,,,0.00,Wunderground v.1.15,2013-06-19 19:50:00,
2013-06-19 14:53:00,80.1,57.5,30.04,SSW,204,2.0,4.0,46,0.00,,,0.00,Wunderground v.1.15,2013-06-19 19:53:00,
2013-06-19 14:55:00,80.3,62.1,30.04,SSW,204,1.0,4.0,54,0.00,,,0.00,Wunderground v.1.15,2013-06-19 19:55:00,
2013-06-19 14:56:00,80.3,58.2,30.04,SSW,204,1.0,4.0,47,0.00,,,0.00,Wunderground v.1.15,2013-06-19 19:56:00,
2013-06-19 15:00:00,80.5,57.8,30.03,NE,38,2.0,5.0,46,0.00,,,0.00,Wunderground v.1.15,2013-06-19 20:00:00,
2013-06-19 15:02:00,80.5,58.4,30.03,ENE,69,1.0,5.0,47,0.00,,,0.00,Wunderground v.1.15,2013-06-19 20:02:00,
2013-06-19 15:04:00,80.5,59.0,30.03,ENE,65,2.0,5.0,48,0.00,,,0.00,Wunderground v.1.15,2013-06-19 20:04:00,
2013-06-19 15:05:00,80.6,57.9,30.03,ENE,65,2.0,5.0,46,0.00,,,0.00,Wunderground v.1.15,2013-06-19 20:05:00,
2013-06-19 15:07:00,80.6,58.5,30.03,ENE,59,2.0,5.0,47,0.00,,,0.00,Wunderground v.1.15,2013-06-19 20:07:00,
2013-06-19 15:09:00,80.6,60.2,30.04,ENE,64,2.0,5.0,50,0.00,,,0.00,Wunderground v.1.15,2013-06-19 20:09:00,
2013-06-19 15:10:00,80.7,59.8,30.04,ENE,65,2.0,2.0,49,0.00,,,0.00,Wunderground v.1.15,2013-06-19 20:10:00,
2013-06-19 15:11:00,80.7,59.2,30.03,ENE,66,2.0,2.0,48,0.00,,,0.00,Wunderground v.1.15,2013-06-19 20:11:00,
2013-06-19 15:13:00,80.8,58.7,30.03,ENE,67,2.0,2.0,47,0.00,,,0.00,Wunderground v.1.15,2013-06-19 20:13:00,
2013-06-19 15:16:00,80.8,58.7,30.03,SSE,158,2.0,6.0,47,0.00,,,0.00,Wunderground v.1.15,2013-06-19 20:16:00,
2013-06-19 15:17:00,80.8,58.7,30.03,SSE,167,2.0,6.0,47,0.00,,,0.00,Wunderground v.1.15,2013-06-19 20:17:00,
2013-06-19 15:20:00,80.7,59.8,30.03,ESE,119,3.0,3.0,49,0.00,,,0.00,Wunderground v.1.15,2013-06-19 20:20:00,
2013-06-19 15:22:00,80.7,58.6,30.03,ESE,107,3.0,4.0,47,0.00,,,0.00,Wunderground v.1.15,2013-06-19 20:22:00,
2013-06-19 15:23:00,80.7,59.2,30.03,East,92,3.0,4.0,48,0.00,,,0.00,Wunderground v.1.15,2013-06-19 20:23:00,
2013-06-19 15:24:00,80.7,59.2,30.03,East,101,3.0,5.0,48,0.00,,,0.00,Wunderground v.1.15,2013-06-19 20:24:00,
2013-06-19 15:28:00,80.5,59.0,30.02,East,97,2.0,5.0,48,0.00,,,0.00,Wunderground v.1.15,2013-06-19 20:28:00,
2013-06-19 15:29:00,80.5,60.7,30.02,East,97,2.0,5.0,51,0.00,,,0.00,Wunderground v.1.15,2013-06-19 20:29:00,
2013-06-19 15:32:00,80.5,57.8,30.03,East,92,2.0,3.0,46,0.00,,,0.00,Wunderground v.1.15,2013-06-19 20:32:00,
2013-06-19 15:34:00,80.5,57.2,30.03,East,92,1.0,3.0,45,0.00,,,0.00,Wunderground v.1.15,2013-06-19 20:34:00,
2013-06-19 15:35:00,80.6,59.7,30.03,East,93,1.0,3.0,49,0.00,,,0.00,Wunderground v.1.15,2013-06-19 20:35:00,
2013-06-19 15:36:00,80.6,58.5,30.03,East,92,1.0,3.0,47,0.00,,,0.00,Wunderground v.1.15,2013-06-19 20:36:00,
2013-06-19 15:39:00,80.8,61.0,30.03,East,91,1.0,3.0,51,0.00,,,0.00,Wunderground v.1.15,2013-06-19 20:39:00,
2013-06-19 15:40:00,80.9,61.6,30.03,East,90,1.0,1.0,52,0.00,,,0.00,Wunderground v.1.15,2013-06-19 20:40:00,
2013-06-19 15:44:00,81.1,60.1,30.03,ESE,117,1.0,4.0,49,0.00,,,0.00,Wunderground v.1.15,2013-06-19 20:44:00,
2013-06-19 15:45:00,81.2,59.1,30.03,SE,126,1.0,4.0,47,0.00,,,0.00,Wunderground v.1.15,2013-06-19 20:45:00,
2013-06-19 15:47:00,81.3,59.1,30.03,SE,133,1.0,4.0,47,0.00,,,0.00,Wunderground v.1.15,2013-06-19 20:47:00,
2013-06-19 15:49:00,81.5,60.5,30.03,SE,133,2.0,4.0,49,0.00,,,0.00,Wunderground v.1.15,2013-06-19 20:49:00,
2013-06-19 15:50:00,81.6,60.6,30.03,SE,133,2.0,2.0,49,0.00,,,0.00,Wunderground v.1.15,2013-06-19 20:50:00,
2013-06-19 15:52:00,81.7,59.5,30.03,SE,134,1.0,2.0,47,0.00,,,0.00,Wunderground v.1.15,2013-06-19 20:52:00,
2013-06-19 15:53:00,81.8,60.2,30.03,SE,134,1.0,2.0,48,0.00,,,0.00,Wunderground v.1.15,2013-06-19 20:53:00,
2013-06-19 15:58:00,82.3,59.4,30.02,SE,134,0.0,2.0,46,0.00,,,0.00,Wunderground v.1.15,2013-06-19 20:58:00,
2013-06-19 15:59:00,82.4,61.9,30.03,SE,134,0.0,3.0,50,0.00,,,0.00,Wunderground v.1.15,2013-06-19 20:59:00,
2013-06-19 16:00:00,82.4,58.9,30.03,SE,127,1.0,2.0,45,0.00,,,0.00,Wunderground v.1.15,2013-06-19 21:00:00,
2013-06-19 16:02:00,82.4,60.1,30.03,SE,126,1.0,2.0,47,0.00,,,0.00,Wunderground v.1.15,2013-06-19 21:02:00,
2013-06-19 16:06:00,82.2,58.7,30.02,ESE,117,1.0,5.0,45,0.00,,,0.00,Wunderground v.1.15,2013-06-19 21:06:00,
2013-06-19 16:07:00,82.1,59.9,30.02,ESE,119,1.0,5.0,47,0.00,,,0.00,Wunderground v.1.15,2013-06-19 21:07:00,
2013-06-19 16:08:00,82.1,59.9,30.02,ESE,116,2.0,5.0,47,0.00,,,0.00,Wunderground v.1.15,2013-06-19 21:08:00,
2013-06-19 16:10:00,82.0,58.6,30.02,East,94,2.0,3.0,45,0.00,,,0.00,Wunderground v.1.15,2013-06-19 21:10:00,
2013-06-19 16:12:00,81.8,59.0,30.02,East,84,2.0,4.0,46,0.00,,,0.00,Wunderground v.1.15,2013-06-19 21:12:00,
2013-06-19 16:13:00,81.8,59.0,30.02,East,82,2.0,4.0,46,0.00,,,0.00,Wunderground v.1.15,2013-06-19 21:13:00,
2013-06-19 16:16:00,81.7,60.1,30.02,East,82,1.0,4.0,48,0.00,,,0.00,Wunderground v.1.15,2013-06-19 21:16:00,
2013-06-19 16:17:00,81.8,60.8,30.02,East,82,1.0,4.0,49,0.00,,,0.00,Wunderground v.1.15,2013-06-19 21:17:00,
2013-06-19 16:18:00,81.8,60.2,30.02,East,82,1.0,4.0,48,0.00,,,0.00,Wunderground v.1.15,2013-06-19 21:18:00,
2013-06-19 16:20:00,81.8,60.2,30.02,NE,46,2.0,5.0,48,0.00,,,0.00,Wunderground v.1.15,2013-06-19 21:20:00,
2013-06-19 16:22:00,81.7,58.3,30.02,NE,38,2.0,5.0,45,0.00,,,0.00,Wunderground v.1.15,2013-06-19 21:22:00,
2013-06-19 16:23:00,81.6,58.2,30.02,NE,38,2.0,5.0,45,0.00,,,0.00,Wunderground v.1.15,2013-06-19 21:23:00,
2013-06-19 16:24:00,81.6,60.6,30.02,NE,38,2.0,5.0,49,0.00,,,0.00,Wunderground v.1.15,2013-06-19 21:24:00,
2013-06-19 16:25:00,81.6,61.2,30.02,NE,34,2.0,5.0,50,0.00,,,0.00,Wunderground v.1.15,2013-06-19 21:25:00,
2013-06-19 16:26:00,81.6,60.0,30.02,ESE,104,2.0,5.0,48,0.00,,,0.00,Wunderground v.1.15,2013-06-19 21:26:00,
2013-06-19 16:30:00,81.6,59.4,30.02,ESE,103,2.0,2.0,47,0.00,,,0.00,Wunderground v.1.15,2013-06-19 21:30:00,
2013-06-19 16:32:00,81.6,60.0,30.02,East,80,2.0,8.0,48,0.00,,,0.00,Wunderground v.1.15,2013-06-19 21:32:00,
2013-06-19 16:33:00,81.5,58.7,30.02,ENE,76,2.0,8.0,46,0.00,,,0.00,Wunderground v.1.15,2013-06-19 21:33:00,
2013-06-19 16:34:00,81.5,59.3,30.02,ENE,76,2.0,8.0,47,0.00,,,0.00,Wunderground v.1.15,2013-06-19 21:34:00,
2013-06-19 16:36:00,81.5,58.1,30.02,ENE,76,2.0,8.0,45,0.00,,,0.00,Wunderground v.1.15,2013-06-19 21:36:00,
2013-06-19 16:37:00,81.5,59.3,30.02,ENE,74,1.0,8.0,47,0.00,,,0.00,Wunderground v.1.15,2013-06-19 21:37:00,
2013-06-19 16:41:00,81.6,61.2,30.02,ENE,74,1.0,1.0,50,0.00,,,0.00,Wunderground v.1.15,2013-06-19 21:41:00,
2013-06-19 16:42:00,81.6,59.4,30.02,ESE,107,1.0,4.0,47,0.00,,,0.00,Wunderground v.1.15,2013-06-19 21:42:00,
2013-06-19 16:43:00,81.7,59.5,30.02,ESE,105,1.0,4.0,47,0.00,,,0.00,Wunderground v.1.15,2013-06-19 21:43:00,
2013-06-19 16:45:00,81.7,60.1,30.02,SE,130,1.0,5.0,48,0.00,,,0.00,Wunderground v.1.15,2013-06-19 21:45:00,
2013-06-19 16:47:00,81.7,61.2,30.02,SE,131,1.0,5.0,50,0.00,,,0.00,Wunderground v.1.15,2013-06-19 21:47:00,
2013-06-19 16:49:00,81.8,60.2,30.02,ESE,121,2.0,5.0,48,0.00,,,0.00,Wunderground v.1.15,2013-06-19 21:49:00,
2013-06-19 16:50:00,81.7,58.9,30.02,ESE,121,2.0,2.0,46,0.00,,,0.00,Wunderground v.1.15,2013-06-19 21:50:00,
2013-06-19 16:53:00,81.8,60.8,30.02,SE,132,1.0,2.0,49,0.00,,,0.00,Wunderground v.1.15,2013-06-19 21:53:00,
2013-06-19 16:54:00,81.8,59.0,30.02,SE,132,1.0,2.0,46,0.00,,,0.00,Wunderground v.1.15,2013-06-19 21:54:00,
2013-06-19 16:55:00,81.8,60.2,30.02,SE,134,1.0,2.0,48,0.00,,,0.00,Wunderground v.1.15,2013-06-19 21:55:00,
2013-06-19 16:56:00,81.8,60.2,30.02,ESE,115,2.0,3.0,48,0.00,,,0.00,Wunderground v.1.15,2013-06-19 21:56:00,
2013-06-19 16:57:00,81.8,59.0,30.01,ESE,108,2.0,3.0,46,0.00,,,0.00,Wunderground v.1.15,2013-06-19 21:57:00,
2013-06-19 16:59:00,81.7,60.1,30.02,ESE,109,2.0,4.0,48,0.00,,,0.00,Wunderground v.1.15,2013-06-19 21:59:00,
2013-06-19 17:04:00,81.8,59.0,30.01,ENE,59,2.0,3.0,46,0.00,,,0.00,Wunderground v.1.15,2013-06-19 22:04:00,
2013-06-19 17:06:00,81.7,59.5,30.02,ENE,69,2.0,3.0,47,0.00,,,0.00,Wunderground v.1.15,2013-06-19 22:06:00,
2013-06-19 17:08:00,81.6,60.0,30.02,NE,53,2.0,4.0,48,0.00,,,0.00,Wunderground v.1.15,2013-06-19 22:08:00,
2013-06-19 17:09:00,81.7,58.9,30.02,NE,46,2.0,4.0,46,0.00,,,0.00,Wunderground v.1.15,2013-06-19 22:09:00,
2013-06-19 17:10:00,81.7,59.5,30.02,NE,44,2.0,3.0,47,0.00,,,0.00,Wunderground v.1.15,2013-06-19 22:10:00,
2013-06-19 17:13:00,81.6,59.4,30.02,NE,50,2.0,3.0,47,0.00,,,0.00,Wunderground v.1.15,2013-06-19 22:13:00,
2013-06-19 17:15:00,81.6,58.2,30.02,NE,50,2.0,3.0,45,0.00,,,0.00,Wunderground v.1.15,2013-06-19 22:15:00,
2013-06-19 17:16:00,81.6,59.4,30.02,NE,50,2.0,3.0,47,0.00,,,0.00,Wunderground v.1.15,2013-06-19 22:16:00,
2013-06-19 17:17:00,81.6,59.4,30.02,NE,50,2.0,3.0,47,0.00,,,0.00,Wunderground v.1.15,2013-06-19 22:17:00,
2013-06-19 17:18:00,81.7,59.5,30.02,NE,50,2.0,3.0,47,0.00,,,0.00,Wunderground v.1.15,2013-06-19 22:18:00,
2013-06-19 17:21:00,81.6,58.2,30.01,NE,51,1.0,1.0,45,0.00,,,0.00,Wunderground v.1.15,2013-06-19 22:21:00,
2013-06-19 17:22:00,81.6,58.2,30.01,NE,51,0.0,1.0,45,0.00,,,0.00,Wunderground v.1.15,2013-06-19 22:22:00,
2013-06-19 17:23:00,81.6,58.2,30.01,NE,51,0.0,1.0,45,0.00,,,0.00,Wunderground v.1.15,2013-06-19 22:23:00,
2013-06-19 17:24:00,81.7,60.7,30.01,NE,51,0.0,1.0,49,0.00,,,0.00,Wunderground v.1.15,2013-06-19 22:24:00,
2013-06-19 17:27:00,81.9,60.9,30.01,NE,51,0.0,1.0,49,0.00,,,0.00,Wunderground v.1.15,2013-06-19 22:27:00,
2013-06-19 17:28:00,82.0,61.0,30.02,NE,55,0.0,2.0,49,0.00,,,0.00,Wunderground v.1.15,2013-06-19 22:28:00,
2013-06-19 17:30:00,82.0,59.2,30.01,ENE,68,0.0,0.0,46,0.00,,,0.00,Wunderground v.1.15,2013-06-19 22:30:00,
2013-06-19 17:31:00,82.0,59.8,30.02,ENE,68,0.0,0.0,47,0.00,,,0.00,Wunderground v.1.15,2013-06-19 22:31:00,
2013-06-19 17:33:00,82.0,60.4,30.02,ENE,71,0.0,0.0,48,0.00,,,0.00,Wunderground v.1.15,2013-06-19 22:33:00,
2013-06-19 17:35:00,82.0,60.4,30.02,ENE,71,0.0,1.0,48,0.00,,,0.00,Wunderground v.1.15,2013-06-19 22:35:00,
2013-06-19 17:39:00,82.0,60.4,30.02,East,82,1.0,2.0,48,0.00,,,0.00,Wunderground v.1.15,2013-06-19 22:39:00,
2013-06-19 17:40:00,82.0,58.6,30.02,East,82,1.0,1.0,45,0.00,,,0.00,Wunderground v.1.15,2013-06-19 22:40:00,
2013-06-19 17:41:00,82.0,58.6,30.02,East,82,1.0,1.0,45,0.00,,,0.00,Wunderground v.1.15,2013-06-19 22:41:00,
2013-06-19 17:44:00,82.0,60.4,30.01,East,82,0.0,3.0,48,0.00,,,0.00,Wunderground v.1.15,2013-06-19 22:44:00,
2013-06-19 17:46:00,82.0,59.2,30.01,East,91,1.0,3.0,46,0.00,,,0.00,Wunderground v.1.15,2013-06-19 22:46:00,
2013-06-19 17:49:00,81.9,59.7,30.02,East,92,1.0,3.0,47,0.00,,,0.00,Wunderground v.1.15,2013-06-19 22:49:00,
2013-06-19 17:50:00,81.9,60.3,30.02,SE,131,1.0,5.0,48,0.00,,,0.00,Wunderground v.1.15,2013-06-19 22:50:00,
2013-06-19 17:52:00,81.7,59.5,30.02,SE,132,1.0,5.0,47,0.00,,,0.00,Wunderground v.1.15,2013-06-19 22:52:00,
2013-06-19 17:54:00,81.6,60.0,30.02,SE,130,1.0,5.0,48,0.00,,,0.00,Wunderground v.1.15,2013-06-19 22:54:00,
2013-06-19 17:57:00,81.4,59.2,30.01,SE,127,2.0,5.0,47,0.00,,,0.00,Wunderground v.1.15,2013-06-19 22:57:00,
2013-06-19 17:59:00,81.3,59.7,30.02,SE,124,2.0,5.0,48,0.00,,,0.00,Wunderground v.1.15,2013-06-19 22:59:00,
2013-06-19 18:00:00,81.3,59.7,30.02,SE,124,2.0,2.0,48,0.00,,,0.00,Wunderground v.1.15,2013-06-19 23:00:00,
2013-06-19 18:01:00,81.2,59.6,30.02,SE,124,1.0,2.0,48,0.00,,,0.00,Wunderground v.1.15,2013-06-19 23:01:00,
2013-06-19 18:03:00,81.1,58.4,30.02,SE,135,2.0,5.0,46,0.00,,,0.00,Wunderground v.1.15,2013-06-19 23:03:00,
2013-06-19 18:04:00,81.1,59.6,30.02,SE,136,2.0,5.0,48,0.00,,,0.00,Wunderground v.1.15,2013-06-19 23:04:00,
2013-06-19 18:07:00,80.9,60.5,30.02,SE,136,1.0,5.0,50,0.00,,,0.00,Wunderground v.1.15,2013-06-19 23:07:00,
2013-06-19 18:08:00,80.9,59.9,30.02,SE,136,1.0,5.0,49,0.00,,,0.00,Wunderground v.1.15,2013-06-19 23:08:00,
2013-06-19 18:11:00,80.7,59.2,30.02,SE,136,2.0,2.0,48,0.00,,,0.00,Wunderground v.1.15,2013-06-19 23:11:00,
2013-06-19 18:13:00,80.7,59.8,30.02,SE,136,1.0,2.0,49,0.00,,,0.00,Wunderground v.1.15,2013-06-19 23:13:00,
2013-06-19 18:16:00,80.6,59.1,30.02,SE,136,1.0,4.0,48,0.00,,,0.00,Wunderground v.1.15,2013-06-19 23:16:00,
2013-06-19 18:17:00,80.6,59.7,30.02,SE,136,1.0,4.0,49,0.00,,,0.00,Wunderground v.1.15,2013-06-19 23:17:00,
2013-06-19 18:18:00,80.6,59.1,30.02,SE,136,1.0,4.0,48,0.00,,,0.00,Wunderground v.1.15,2013-06-19 23:18:00,
2013-06-19 18:19:00,80.6,59.7,30.02,SE,136,1.0,4.0,49,0.00,,,0.00,Wunderground v.1.15,2013-06-19 23:19:00,
2013-06-19 18:22:00,80.6,59.7,30.02,SE,135,1.0,2.0,49,0.00,,,0.00,Wunderground v.1.15,2013-06-19 23:22:00,
2013-06-19 18:23:00,80.7,60.3,30.02,SE,135,1.0,2.0,50,0.00,,,0.00,Wunderground v.1.15,2013-06-19 23:23:00,
2013-06-19 18:25:00,80.6,59.1,30.02,SE,135,1.0,2.0,48,0.00,,,0.00,Wunderground v.1.15,2013-06-19 23:25:00,
2013-06-19 18:30:00,80.6,59.1,30.02,SE,135,0.0,1.0,48,0.00,,,0.00,Wunderground v.1.15,2013-06-19 23:30:00,
2013-06-19 18:34:00,80.6,60.2,30.02,SE,134,0.0,2.0,50,0.00,,,0.00,Wunderground v.1.15,2013-06-19 23:34:00,
2013-06-19 18:35:00,80.6,59.1,30.02,SE,134,0.0,2.0,48,0.00,,,0.00,Wunderground v.1.15,2013-06-19 23:35:00,
2013-06-19 18:39:00,80.6,59.1,30.02,SE,134,0.0,2.0,48,0.00,,,0.00,Wunderground v.1.15,2013-06-19 23:39:00,
2013-06-19 18:41:00,80.7,60.3,30.02,SE,134,0.0,1.0,50,0.00,,,0.00,Wunderground v.1.15,2013-06-19 23:41:00,
2013-06-19 18:43:00,80.8,58.7,30.02,SE,134,0.0,1.0,47,0.00,,,0.00,Wunderground v.1.15,2013-06-19 23:43:00,
2013-06-19 18:44:00,80.8,59.3,30.02,SE,134,0.0,1.0,48,0.00,,,0.00,Wunderground v.1.15,2013-06-19 23:44:00,
2013-06-19 18:48:00,80.8,58.1,30.02,SE,135,1.0,3.0,46,0.00,,,0.00,Wunderground v.1.15,2013-06-19 23:48:00,
2013-06-19 18:49:00,80.7,58.6,30.02,SE,135,1.0,3.0,47,0.00,,,0.00,Wunderground v.1.15,2013-06-19 23:49:00,
2013-06-19 18:50:00,80.7,59.2,30.02,SE,135,1.0,1.0,48,0.00,,,0.00,Wunderground v.1.15,2013-06-19 23:50:00,
2013-06-19 18:51:00,80.6,59.1,30.02,SE,135,1.0,1.0,48,0.00,,,0.00,Wunderground v.1.15,2013-06-19 23:51:00,
2013-06-19 18:53:00,80.5,59.6,30.02,SE,135,1.0,1.0,49,0.00,,,0.00,Wunderground v.1.15,2013-06-19 23:53:00,
2013-06-19 18:54:00,80.5,59.0,30.02,SE,135,1.0,1.0,48,0.00,,,0.00,Wunderground v.1.15,2013-06-19 23:54:00,
2013-06-19 18:56:00,80.4,59.5,30.02,SE,135,0.0,1.0,49,0.00,,,0.00,Wunderground v.1.15,2013-06-19 23:56:00,
2013-06-19 18:57:00,80.4,59.5,30.02,SE,135,0.0,1.0,49,0.00,,,0.00,Wunderground v.1.15,2013-06-19 23:57:00,
2013-06-19 18:59:00,80.4,60.1,30.02,SE,135,0.0,1.0,50,0.00,,,0.00,Wunderground v.1.15,2013-06-19 23:59:00,
2013-06-19 19:00:00,80.3,58.8,30.02,SE,135,0.0,0.0,48,0.00,,,0.00,Wunderground v.1.15,2013-06-20 00:00:00,
2013-06-19 19:01:00,80.2,58.7,30.02,SE,135,0.0,0.0,48,0.00,,,0.00,Wunderground v.1.15,2013-06-20 00:01:00,
2013-06-19 19:02:00,80.3,58.8,30.02,SE,135,0.0,0.0,48,0.00,,,0.00,Wunderground v.1.15,2013-06-20 00:02:00,
2013-06-19 19:04:00,80.2,58.7,30.02,SE,135,0.0,0.0,48,0.00,,,0.00,Wunderground v.1.15,2013-06-20 00:04:00,
2013-06-19 19:05:00,80.1,58.6,30.02,SE,135,0.0,0.0,48,0.00,,,0.00,Wunderground v.1.15,2013-06-20 00:05:00,
2013-06-19 19:06:00,80.1,59.2,30.02,SE,135,0.0,0.0,49,0.00,,,0.00,Wunderground v.1.15,2013-06-20 00:06:00,
2013-06-19 19:07:00,80.1,59.2,30.02,SE,135,0.0,0.0,49,0.00,,,0.00,Wunderground v.1.15,2013-06-20 00:07:00,
2013-06-19 19:08:00,80.0,60.8,30.02,SE,135,0.0,0.0,52,0.00,,,0.00,Wunderground v.1.15,2013-06-20 00:08:00,
2013-06-19 19:10:00,79.9,59.0,30.02,SE,135,0.0,0.0,49,0.00,,,0.00,Wunderground v.1.15,2013-06-20 00:10:00,
2013-06-19 19:11:00,79.8,58.9,30.02,SE,135,0.0,0.0,49,0.00,,,0.00,Wunderground v.1.15,2013-06-20 00:11:00,
2013-06-19 19:13:00,79.7,59.4,30.02,SE,135,0.0,0.0,50,0.00,,,0.00,Wunderground v.1.15,2013-06-20 00:13:00,
2013-06-19 19:18:00,79.4,58.6,30.02,SE,135,0.0,0.0,49,0.00,,,0.00,Wunderground v.1.15,2013-06-20 00:18:00,
2013-06-19 19:21:00,79.1,59.4,30.02,SE,135,0.0,0.0,51,0.00,,,0.00,Wunderground v.1.15,2013-06-20 00:21:00,
2013-06-19 19:22:00,79.1,59.4,30.02,SE,135,0.0,0.0,51,0.00,,,0.00,Wunderground v.1.15,2013-06-20 00:22:00,
2013-06-19 19:23:00,79.1,60.5,30.02,SE,135,0.0,0.0,53,0.00,,,0.00,Wunderground v.1.15,2013-06-20 00:23:00,
2013-06-19 19:27:00,78.8,60.2,30.02,SE,135,0.0,0.0,53,0.00,,,0.00,Wunderground v.1.15,2013-06-20 00:27:00,
2013-06-19 19:28:00,78.7,61.7,30.02,SE,135,0.0,0.0,56,0.00,,,0.00,Wunderground v.1.15,2013-06-20 00:28:00,
2013-06-19 19:29:00,78.7,61.7,30.02,SE,135,0.0,0.0,56,0.00,,,0.00,Wunderground v.1.15,2013-06-20 00:29:00,
2013-06-19 19:33:00,78.4,59.9,30.02,SE,135,0.0,0.0,53,0.00,,,0.00,Wunderground v.1.15,2013-06-20 00:33:00,
2013-06-19 19:34:00,78.3,59.8,30.02,SE,135,0.0,0.0,53,0.00,,,0.00,Wunderground v.1.15,2013-06-20 00:34:00,
2013-06-19 19:35:00,78.2,59.7,30.02,SE,135,0.0,0.0,53,0.00,,,0.00,Wunderground v.1.15,2013-06-20 00:35:00,
2013-06-19 19:36:00,78.2,60.2,30.02,SE,135,0.0,0.0,54,0.00,,,0.00,Wunderground v.1.15,2013-06-20 00:36:00,
2013-06-19 19:38:00,78.1,61.1,30.02,SE,135,0.0,0.0,56,0.00,,,0.00,Wunderground v.1.15,2013-06-20 00:38:00,
2013-06-19 19:39:00,78.0,61.0,30.02,SE,135,0.0,0.0,56,0.00,,,0.00,Wunderground v.1.15,2013-06-20 00:39:00,
2013-06-19 19:41:00,77.9,59.9,30.02,SE,135,0.0,0.0,54,0.00,,,0.00,Wunderground v.1.15,2013-06-20 00:41:00,
2013-06-19 19:42:00,77.9,59.9,30.02,SE,135,0.0,0.0,54,0.00,,,0.00,Wunderground v.1.15,2013-06-20 00:42:00,
2013-06-19 19:45:00,77.7,60.2,30.02,SE,135,0.0,0.0,55,0.00,,,0.00,Wunderground v.1.15,2013-06-20 00:45:00,
2013-06-19 19:48:00,77.6,60.7,30.02,SE,135,0.0,0.0,56,0.00,,,0.00,Wunderground v.1.15,2013-06-20 00:48:00,
2013-06-19 19:49:00,77.6,62.6,30.02,SE,135,0.0,0.0,60,0.00,,,0.00,Wunderground v.1.15,2013-06-20 00:49:00,
2013-06-19 19:50:00,77.6,63.1,30.02,SE,135,0.0,0.0,61,0.00,,,0.00,Wunderground v.1.15,2013-06-20 00:50:00,
2013-06-19 19:51:00,77.5,63.0,30.02,SE,135,0.0,0.0,61,0.00,,,0.00,Wunderground v.1.15,2013-06-20 00:51:00,
2013-06-19 19:53:00,77.4,63.4,30.02,SE,135,0.0,0.0,62,0.00,,,0.00,Wunderground v.1.15,2013-06-20 00:53:00,
2013-06-19 19:54:00,77.4,63.8,30.02,SE,135,0.0,0.0,63,0.00,,,0.00,Wunderground v.1.15,2013-06-20 00:54:00,
2013-06-19 19:55:00,77.3,63.7,30.02,SE,135,0.0,0.0,63,0.00,,,0.00,Wunderground v.1.15,2013-06-20 00:55:00,
2013-06-19 19:58:00,77.0,63.4,30.02,SE,135,0.0,0.0,63,0.00,,,0.00,Wunderground v.1.15,2013-06-20 00:58:00,
2013-06-19 19:59:00,76.9,62.9,30.02,SE,135,0.0,0.0,62,0.00,,,0.00,Wunderground v.1.15,2013-06-20 00:59:00,
2013-06-19 20:00:00,76.8,62.3,30.02,SE,135,0.0,0.0,61,0.00,,,0.00,Wunderground v.1.15,2013-06-20 01:00:00,
2013-06-19 20:01:00,76.6,62.1,30.02,SE,135,0.0,0.0,61,0.00,,,0.00,Wunderground v.1.15,2013-06-20 01:01:00,
2013-06-19 20:04:00,76.4,62.4,30.02,SE,135,0.0,0.0,62,0.00,,,0.00,Wunderground v.1.15,2013-06-20 01:04:00,
2013-06-19 20:06:00,76.2,62.7,30.02,SE,135,0.0,0.0,63,0.00,,,0.00,Wunderground v.1.15,2013-06-20 01:06:00,
2013-06-19 20:07:00,76.2,62.2,30.02,SE,135,0.0,0.0,62,0.00,,,0.00,Wunderground v.1.15,2013-06-20 01:07:00,
2013-06-19 20:09:00,76.0,62.0,30.01,SE,135,0.0,0.0,62,0.00,,,0.00,Wunderground v.1.15,2013-06-20 01:09:00,
2013-06-19 20:12:00,75.7,62.2,30.01,SE,135,0.0,0.0,63,0.00,,,0.00,Wunderground v.1.15,2013-06-20 01:12:00,
2013-06-19 20:13:00,75.6,62.1,30.01,SE,135,0.0,0.0,63,0.00,,,0.00,Wunderground v.1.15,2013-06-20 01:13:00,
2013-06-19 20:14:00,75.5,62.0,30.02,SE,135,0.0,0.0,63,0.00,,,0.00,Wunderground v.1.15,2013-06-20 01:14:00,
2013-06-19 20:17:00,75.2,62.2,30.01,SE,135,0.0,0.0,64,0.00,,,0.00,Wunderground v.1.15,2013-06-20 01:17:00,
2013-06-19 20:18:00,75.1,62.1,30.02,SE,135,0.0,0.0,64,0.00,,,0.00,Wunderground v.1.15,2013-06-20 01:18:00,
2013-06-19 20:19:00,75.0,62.0,30.02,SE,135,0.0,0.0,64,0.00,,,0.00,Wunderground v.1.15,2013-06-20 01:19:00,
2013-06-19 20:20:00,74.9,61.9,30.01,SE,135,0.0,0.0,64,0.00,,,0.00,Wunderground v.1.15,2013-06-20 01:20:00,
2013-06-19 20:22:00,74.8,61.4,30.01,SE,135,0.0,0.0,63,0.00,,,0.00,Wunderground v.1.15,2013-06-20 01:22:00,
2013-06-19 20:23:00,74.6,61.2,30.02,SE,135,0.0,0.0,63,0.00,,,0.00,Wunderground v.1.15,2013-06-20 01:23:00,
2013-06-19 20:25:00,74.4,61.4,30.02,SE,135,0.0,0.0,64,0.00,,,0.00,Wunderground v.1.15,2013-06-20 01:25:00,
2013-06-19 20:26:00,74.2,61.2,30.02,SE,135,0.0,0.0,64,0.00,,,0.00,Wunderground v.1.15,2013-06-20 01:26:00,
2013-06-19 20:27:00,74.2,61.2,30.01,SE,135,0.0,0.0,64,0.00,,,0.00,Wunderground v.1.15,2013-06-20 01:27:00,
2013-06-19 20:29:00,73.9,61.0,30.01,SE,135,0.0,0.0,64,0.00,,,0.00,Wunderground v.1.15,2013-06-20 01:29:00,
2013-06-19 20:32:00,73.6,61.1,30.02,SE,135,0.0,0.0,65,0.00,,,0.00,Wunderground v.1.15,2013-06-20 01:32:00,
2013-06-19 20:33:00,73.5,61.0,30.01,SE,135,0.0,0.0,65,0.00,,,0.00,Wunderground v.1.15,2013-06-20 01:33:00,
2013-06-19 20:34:00,73.4,60.9,30.01,SE,135,0.0,0.0,65,0.00,,,0.00,Wunderground v.1.15,2013-06-20 01:34:00,
2013-06-19 20:35:00,73.2,61.2,30.02,SE,135,0.0,0.0,66,0.00,,,0.00,Wunderground v.1.15,2013-06-20 01:35:00,
2013-06-19 20:38:00,73.0,61.4,30.01,SE,135,0.0,0.0,67,0.00,,,0.00,Wunderground v.1.15,2013-06-20 01:38:00,
2013-06-19 20:40:00,72.8,61.2,30.02,SE,135,0.0,0.0,67,0.00,,,0.00,Wunderground v.1.15,2013-06-20 01:40:00,
2013-06-19 20:41:00,72.6,61.0,30.02,SE,135,0.0,0.0,67,0.00,,,0.00,Wunderground v.1.15,2013-06-20 01:41:00,
2013-06-19 20:42:00,72.5,60.9,30.02,SE,135,0.0,0.0,67,0.00,,,0.00,Wunderground v.1.15,2013-06-20 01:42:00,
2013-06-19 20:44:00,72.2,61.0,30.02,SE,135,0.0,0.0,68,0.00,,,0.00,Wunderground v.1.15,2013-06-20 01:44:00,
2013-06-19 20:45:00,72.1,61.0,30.01,SE,135,0.0,0.0,68,0.00,,,0.00,Wunderground v.1.15,2013-06-20 01:45:00,
2013-06-19 20:46:00,71.9,60.8,30.02,SE,135,0.0,0.0,68,0.00,,,0.00,Wunderground v.1.15,2013-06-20 01:46:00,
2013-06-19 20:51:00,71.4,60.7,30.01,SE,135,0.0,0.0,69,0.00,,,0.00,Wunderground v.1.15,2013-06-20 01:51:00,
2013-06-19 20:52:00,71.3,60.6,30.02,SE,135,0.0,0.0,69,0.00,,,0.00,Wunderground v.1.15,2013-06-20 01:52:00,
2013-06-19 20:53:00,71.2,60.5,30.02,SE,135,0.0,0.0,69,0.00,,,0.00,Wunderground v.1.15,2013-06-20 01:53:00,
2013-06-19 20:57:00,70.8,60.1,30.02,SE,135,0.0,0.0,69,0.00,,,0.00,Wunderground v.1.15,2013-06-20 01:57:00,
2013-06-19 20:58:00,70.7,59.6,30.02,SE,135,0.0,0.0,68,0.00,,,0.00,Wunderground v.1.15,2013-06-20 01:58:00,
2013-06-19 21:00:00,70.5,60.2,30.02,SE,135,0.0,0.0,70,0.00,,,0.00,Wunderground v.1.15,2013-06-20 02:00:00,
2013-06-19 21:02:00,70.3,60.1,30.02,SE,135,0.0,0.0,70,0.00,,,0.00,Wunderground v.1.15,2013-06-20 02:02:00,
2013-06-19 21:03:00,70.2,60.0,30.02,SE,135,0.0,0.0,70,0.00,,,0.00,Wunderground v.1.15,2013-06-20 02:03:00,
2013-06-19 21:04:00,70.2,59.6,30.02,SE,135,0.0,0.0,69,0.00,,,0.00,Wunderground v.1.15,2013-06-20 02:04:00,
2013-06-19 21:09:00,69.9,59.3,30.02,SE,135,0.0,0.0,69,0.00,,,0.00,Wunderground v.1.15,2013-06-20 02:09:00,
2013-06-19 21:11:00,69.7,59.1,30.02,SE,135,0.0,0.0,69,0.00,,,0.00,Wunderground v.1.15,2013-06-20 02:11:00,
2013-06-19 21:12:00,69.7,59.1,30.02,SE,135,0.0,0.0,69,0.00,,,0.00,Wunderground v.1.15,2013-06-20 02:12:00,
2013-06-19 21:14:00,69.5,59.3,30.03,SE,135,0.0,0.0,70,0.00,,,0.00,Wunderground v.1.15,2013-06-20 02:14:00,
2013-06-19 21:15:00,69.5,59.3,30.03,SE,135,0.0,0.0,70,0.00,,,0.00,Wunderground v.1.15,2013-06-20 02:15:00,
2013-06-19 21:17:00,69.4,59.2,30.03,SE,135,0.0,0.0,70,0.00,,,0.00,Wunderground v.1.15,2013-06-20 02:17:00,
2013-06-19 21:18:00,69.4,59.6,30.03,SE,135,0.0,0.0,71,0.00,,,0.00,Wunderground v.1.15,2013-06-20 02:18:00,
2013-06-19 21:19:00,69.3,59.5,30.03,SE,135,0.0,0.0,71,0.00,,,0.00,Wunderground v.1.15,2013-06-20 02:19:00,
2013-06-19 21:20:00,69.2,59.4,30.03,SE,135,0.0,0.0,71,0.00,,,0.00,Wunderground v.1.15,2013-06-20 02:20:00,
2013-06-19 21:21:00,69.2,59.4,30.03,SE,135,0.0,0.0,71,0.00,,,0.00,Wunderground v.1.15,2013-06-20 02:21:00,
2013-06-19 21:23:00,69.1,59.3,30.03,SE,135,0.0,0.0,71,0.00,,,0.00,Wunderground v.1.15,2013-06-20 02:23:00,
2013-06-19 21:24:00,69.1,59.3,30.03,SE,135,0.0,0.0,71,0.00,,,0.00,Wunderground v.1.15,2013-06-20 02:24:00,
2013-06-19 21:26:00,69.0,59.2,30.03,SE,135,0.0,0.0,71,0.00,,,0.00,Wunderground v.1.15,2013-06-20 02:26:00,
2013-06-19 21:30:00,68.9,59.1,30.03,SE,135,0.0,0.0,71,0.00,,,0.00,Wunderground v.1.15,2013-06-20 02:30:00,
2013-06-19 21:33:00,68.8,59.4,30.03,SE,135,0.0,0.0,72,0.00,,,0.00,Wunderground v.1.15,2013-06-20 02:33:00,
2013-06-19 21:34:00,68.8,59.4,30.03,SE,135,0.0,0.0,72,0.00,,,0.00,Wunderground v.1.15,2013-06-20 02:34:00,
2013-06-19 21:36:00,68.8,59.4,30.03,SE,135,0.0,0.0,72,0.00,,,0.00,Wunderground v.1.15,2013-06-20 02:36:00,
2013-06-19 21:38:00,68.8,59.0,30.03,SE,135,0.0,0.0,71,0.00,,,0.00,Wunderground v.1.15,2013-06-20 02:38:00,
2013-06-19 21:39:00,68.7,58.9,30.03,SE,135,0.0,0.0,71,0.00,,,0.00,Wunderground v.1.15,2013-06-20 02:39:00,
2013-06-19 21:40:00,68.7,59.3,30.03,SE,135,0.0,0.0,72,0.00,,,0.00,Wunderground v.1.15,2013-06-20 02:40:00,
2013-06-19 21:45:00,68.7,59.3,30.03,SE,135,0.0,0.0,72,0.00,,,0.00,Wunderground v.1.15,2013-06-20 02:45:00,
2013-06-19 21:46:00,68.7,59.3,30.03,SE,135,0.0,0.0,72,0.00,,,0.00,Wunderground v.1.15,2013-06-20 02:46:00,
2013-06-19 21:49:00,68.7,59.3,30.03,SE,135,0.0,0.0,72,0.00,,,0.00,Wunderground v.1.15,2013-06-20 02:49:00,
2013-06-19 21:51:00,68.7,59.3,30.03,SE,135,0.0,0.0,72,0.00,,,0.00,Wunderground v.1.15,2013-06-20 02:51:00,
2013-06-19 21:52:00,68.7,59.3,30.03,SE,135,0.0,0.0,72,0.00,,,0.00,Wunderground v.1.15,2013-06-20 02:52:00,
2013-06-19 21:53:00,68.7,59.3,30.03,SE,135,0.0,0.0,72,0.00,,,0.00,Wunderground v.1.15,2013-06-20 02:53:00,
2013-06-19 21:54:00,68.7,59.3,30.03,SE,135,0.0,0.0,72,0.00,,,0.00,Wunderground v.1.15,2013-06-20 02:54:00,
2013-06-19 21:57:00,68.7,59.3,30.03,SE,135,0.0,0.0,72,0.00,,,0.00,Wunderground v.1.15,2013-06-20 02:57:00,
2013-06-19 21:58:00,68.8,59.0,30.03,SE,135,0.0,0.0,71,0.00,,,0.00,Wunderground v.1.15,2013-06-20 02:58:00,
2013-06-19 21:59:00,68.8,59.0,30.03,SE,135,0.0,0.0,71,0.00,,,0.00,Wunderground v.1.15,2013-06-20 02:59:00,
2013-06-19 22:01:00,68.8,59.0,30.04,SE,135,0.0,0.0,71,0.00,,,0.00,Wunderground v.1.15,2013-06-20 03:01:00,
2013-06-19 22:02:00,68.8,59.0,30.04,SE,135,0.0,0.0,71,0.00,,,0.00,Wunderground v.1.15,2013-06-20 03:02:00,
2013-06-19 22:06:00,68.9,59.1,30.04,ESE,115,1.0,6.0,71,0.00,,,0.00,Wunderground v.1.15,2013-06-20 03:06:00,
2013-06-19 22:07:00,68.9,59.1,30.04,ESE,108,2.0,6.0,71,0.00,,,0.00,Wunderground v.1.15,2013-06-20 03:07:00,
2013-06-19 22:08:00,69.0,59.2,30.04,ESE,115,2.0,6.0,71,0.00,,,0.00,Wunderground v.1.15,2013-06-20 03:08:00,
2013-06-19 22:11:00,69.1,58.9,30.04,ESE,103,3.0,5.0,70,0.00,,,0.00,Wunderground v.1.15,2013-06-20 03:11:00,
2013-06-19 22:12:00,69.2,59.0,30.04,ESE,103,3.0,5.0,70,0.00,,,0.00,Wunderground v.1.15,2013-06-20 03:12:00,
2013-06-19 22:15:00,69.3,58.7,30.04,ESE,115,3.0,6.0,69,0.00,,,0.00,Wunderground v.1.15,2013-06-20 03:15:00,
2013-06-19 22:16:00,69.4,58.8,30.04,ESE,119,3.0,6.0,69,0.00,,,0.00,Wunderground v.1.15,2013-06-20 03:16:00,
2013-06-19 22:19:00,69.4,58.4,30.04,SE,136,3.0,6.0,68,0.00,,,0.00,Wunderground v.1.15,2013-06-20 03:19:00,
2013-06-19 22:21:00,69.4,58.4,30.04,SE,138,3.0,5.0,68,0.00,,,0.00,Wunderground v.1.15,2013-06-20 03:21:00,
2013-06-19 22:23:00,69.4,58.4,30.04,SE,132,3.0,5.0,68,0.00,,,0.00,Wunderground v.1.15,2013-06-20 03:23:00,
2013-06-19 22:25:00,69.4,58.0,30.04,SE,127,3.0,5.0,67,0.00,,,0.00,Wunderground v.1.15,2013-06-20 03:25:00,
2013-06-19 22:26:00,69.4,58.4,30.04,SSE,165,3.0,5.0,68,0.00,,,0.00,Wunderground v.1.15,2013-06-20 03:26:00,
2013-06-19 22:27:00,69.4,58.0,30.04,SSE,164,3.0,5.0,67,0.00,,,0.00,Wunderground v.1.15,2013-06-20 03:27:00,
2013-06-19 22:29:00,69.3,58.3,30.04,SSE,157,3.0,5.0,68,0.00,,,0.00,Wunderground v.1.15,2013-06-20 03:29:00,
2013-06-19 22:30:00,69.3,57.9,30.04,SSE,155,3.0,4.0,67,0.00,,,0.00,Wunderground v.1.15,2013-06-20 03:30:00,
2013-06-19 22:31:00,69.2,57.8,30.04,SE,143,3.0,4.0,67,0.00,,,0.00,Wunderground v.1.15,2013-06-20 03:31:00,
2013-06-19 22:32:00,69.2,57.8,30.04,SE,143,3.0,4.0,67,0.00,,,0.00,Wunderground v.1.15,2013-06-20 03:32:00,
2013-06-19 22:36:00,69.1,57.3,30.04,SE,143,3.0,4.0,66,0.00,,,0.00,Wunderground v.1.15,2013-06-20 03:36:00,
2013-06-19 22:37:00,69.1,57.3,30.04,SE,139,2.0,4.0,66,0.00,,,0.00,Wunderground v.1.15,2013-06-20 03:37:00,
2013-06-19 22:39:00,69.1,57.3,30.05,SE,136,2.0,4.0,66,0.00,,,0.00,Wunderground v.1.15,2013-06-20 03:39:00,
2013-06-19 22:40:00,69.0,57.2,30.05,SE,130,2.0,2.0,66,0.00,,,0.00,Wunderground v.1.15,2013-06-20 03:40:00,
2013-06-19 22:42:00,69.0,56.7,30.05,SE,128,2.0,2.0,65,0.00,,,0.00,Wunderground v.1.15,2013-06-20 03:42:00,
2013-06-19 22:44:00,69.0,56.7,30.05,ESE,116,2.0,2.0,65,0.00,,,0.00,Wunderground v.1.15,2013-06-20 03:44:00,
2013-06-19 22:46:00,69.0,56.7,30.05,ESE,114,2.0,2.0,65,0.00,,,0.00,Wunderground v.1.15,2013-06-20 03:46:00,
2013-06-19 22:48:00,68.9,56.6,30.05,ESE,114,1.0,2.0,65,0.00,,,0.00,Wunderground v.1.15,2013-06-20 03:48:00,
2013-06-19 22:49:00,68.9,56.6,30.05,SE,138,1.0,4.0,65,0.00,,,0.00,Wunderground v.1.15,2013-06-20 03:49:00,
2013-06-19 22:50:00,68.9,56.6,30.05,SE,136,1.0,1.0,65,0.00,,,0.00,Wunderground v.1.15,2013-06-20 03:50:00,
2013-06-19 22:52:00,68.8,56.6,30.05,SE,136,1.0,2.0,65,0.00,,,0.00,Wunderground v.1.15,2013-06-20 03:52:00,
2013-06-19 22:54:00,68.8,56.1,30.05,SE,136,1.0,3.0,64,0.00,,,0.00,Wunderground v.1.15,2013-06-20 03:54:00,
2013-06-19 22:56:00,68.7,56.0,30.05,SE,134,2.0,3.0,64,0.00,,,0.00,Wunderground v.1.15,2013-06-20 03:56:00,
2013-06-19 22:57:00,68.6,55.9,30.05,SE,134,2.0,3.0,64,0.00,,,0.00,Wunderground v.1.15,2013-06-20 03:57:00,
2013-06-19 22:59:00,68.6,56.4,30.05,ESE,107,2.0,3.0,65,0.00,,,0.00,Wunderground v.1.15,2013-06-20 03:59:00,
2013-06-19 23:01:00,68.5,55.8,30.05,ESE,107,2.0,2.0,64,0.00,,,0.00,Wunderground v.1.15,2013-06-20 04:01:00,
2013-06-19 23:02:00,68.5,55.8,30.05,ESE,107,2.0,2.0,64,0.00,,,0.00,Wunderground v.1.15,2013-06-20 04:02:00,
2013-06-19 23:03:00,68.5,55.8,30.06,ESE,107,2.0,2.0,64,0.00,,,0.00,Wunderground v.1.15,2013-06-20 04:03:00,
2013-06-19 23:07:00,68.3,55.6,30.05,ESE,117,2.0,3.0,64,0.00,,,0.00,Wunderground v.1.15,2013-06-20 04:07:00,
2013-06-19 23:09:00,68.3,55.6,30.05,ESE,117,1.0,3.0,64,0.00,,,0.00,Wunderground v.1.15,2013-06-20 04:09:00,
2013-06-19 23:12:00,68.2,56.0,30.05,SE,130,1.0,3.0,65,0.00,,,0.00,Wunderground v.1.15,2013-06-20 04:12:00,
2013-06-19 23:13:00,68.2,56.0,30.06,SE,130,1.0,3.0,65,0.00,,,0.00,Wunderground v.1.15,2013-06-20 04:13:00,
2013-06-19 23:14:00,68.1,55.5,30.05,SE,130,1.0,3.0,64,0.00,,,0.00,Wunderground v.1.15,2013-06-20 04:14:00,
2013-06-19 23:17:00,68.0,55.8,30.06,SE,141,2.0,4.0,65,0.00,,,0.00,Wunderground v.1.15,2013-06-20 04:17:00,
2013-06-19 23:19:00,68.0,55.8,30.06,SE,143,2.0,4.0,65,0.00,,,0.00,Wunderground v.1.15,2013-06-20 04:19:00,
2013-06-19 23:21:00,67.9,55.7,30.06,SE,144,2.0,3.0,65,0.00,,,0.00,Wunderground v.1.15,2013-06-20 04:21:00,
2013-06-19 23:22:00,67.9,55.7,30.06,SE,144,2.0,4.0,65,0.00,,,0.00,Wunderground v.1.15,2013-06-20 04:22:00,
2013-06-19 23:26:00,67.7,55.9,30.06,SE,141,1.0,4.0,66,0.00,,,0.00,Wunderground v.1.15,2013-06-20 04:26:00,
2013-06-19 23:27:00,67.7,55.9,30.06,SE,141,1.0,4.0,66,0.00,,,0.00,Wunderground v.1.15,2013-06-20 04:27:00,
2013-06-19 23:28:00,67.7,55.9,30.06,SE,142,1.0,4.0,66,0.00,,,0.00,Wunderground v.1.15,2013-06-20 04:28:00,
2013-06-19 23:29:00,67.6,55.8,30.06,SE,141,1.0,4.0,66,0.00,,,0.00,Wunderground v.1.15,2013-06-20 04:29:00,
2013-06-19 23:30:00,67.6,55.4,30.06,SE,140,1.0,1.0,65,0.00,,,0.00,Wunderground v.1.15,2013-06-20 04:30:00,
2013-06-19 23:34:00,67.4,55.2,30.06,SE,140,1.0,3.0,65,0.00,,,0.00,Wunderground v.1.15,2013-06-20 04:34:00,
2013-06-19 23:35:00,67.4,55.6,30.06,SE,138,2.0,3.0,66,0.00,,,0.00,Wunderground v.1.15,2013-06-20 04:35:00,
2013-06-19 23:40:00,67.2,55.5,30.06,SE,138,2.0,2.0,66,0.00,,,0.00,Wunderground v.1.15,2013-06-20 04:40:00,
2013-06-19 23:42:00,67.2,55.5,30.06,SE,138,2.0,2.0,66,0.00,,,0.00,Wunderground v.1.15,2013-06-20 04:42:00,
2013-06-19 23:43:00,67.2,55.5,30.06,SE,138,2.0,3.0,66,0.00,,,0.00,Wunderground v.1.15,2013-06-20 04:43:00,
2013-06-19 23:45:00,67.1,55.4,30.06,SE,138,2.0,3.0,66,0.00,,,0.00,Wunderground v.1.15,2013-06-20 04:45:00,
2013-06-19 23:46:00,67.0,55.7,30.06,SE,138,2.0,3.0,67,0.00,,,0.00,Wunderground v.1.15,2013-06-20 04:46:00,
2013-06-19 23:48:00,67.0,55.3,30.06,SE,140,2.0,4.0,66,0.00,,,0.00,Wunderground v.1.15,2013-06-20 04:48:00,
2013-06-19 23:49:00,67.0,55.3,30.06,SE,141,2.0,4.0,66,0.00,,,0.00,Wunderground v.1.15,2013-06-20 04:49:00,
2013-06-19 23:50:00,67.0,55.3,30.06,SE,140,2.0,3.0,66,0.00,,,0.00,Wunderground v.1.15,2013-06-20 04:50:00,
2013-06-19 23:51:00,66.9,55.2,30.06,SE,142,2.0,3.0,66,0.00,,,0.00,Wunderground v.1.15,2013-06-20 04:51:00,
2013-06-19 23:53:00,66.9,55.2,30.06,SE,142,2.0,3.0,66,0.00,,,0.00,Wunderground v.1.15,2013-06-20 04:53:00,
2013-06-19 23:54:00,66.9,55.2,30.06,SE,142,2.0,3.0,66,0.00,,,0.00,Wunderground v.1.15,2013-06-20 04:54:00,
2013-06-19 23:56:00,66.9,55.2,30.06,SE,142,2.0,3.0,66,0.00,,,0.00,Wunderground v.1.15,2013-06-20 04:56:00,
2013-06-19 23:58:00,66.9,55.2,30.06,SE,137,2.0,3.0,66,0.00,,,0.00,Wunderground v.1.15,2013-06-20 04:58:00,
2013-06-19 23:59:00,66.8,55.5,30.06,SE,137,2.0,3.0,67,0.00,,,0.00,Wunderground v.1.15,2013-06-20 04:59:00,